Observation data for Endee on 11/16/2019      Previous  Date       Current Mesonet Observations  Soil Data  Daily Summary Page  Observations in Plain Language
KEN1 160600Z 20011KT 08/M03 A3012 RMK A01 T00821028  RH  046%=      5-min Rain = 0
KEN1 160601Z 20011KT 08/M03 A3012 RMK A01 T00821028  RH  046%=      5-min Rain = 0
KEN1 160602Z 20011KT 08/M03 A3012 RMK A01 T00821027  RH  046%=      5-min Rain = 0
KEN1 160603Z 20011KT 08/M03 A3012 RMK A01 T00831027  RH  046%=      5-min Rain = 0
KEN1 160604Z 21010KT 08/M03 A3012 RMK A01 T00841027  RH  046%=      5-min Rain = 0
KEN1 160605Z 21010KT 08/M03 A3012 RMK A01 T00831027  RH  046%=      5-min Rain = 0
KEN1 160606Z 20010KT 08/M03 A3012 RMK A01 T00831026  RH  046%=      5-min Rain = 0
KEN1 160607Z 20010KT 08/M03 A3012 RMK A01 T00831026  RH  046%=      5-min Rain = 0
KEN1 160608Z 21010KT 08/M03 A3012 RMK A01 T00831026  RH  046%=      5-min Rain = 0
KEN1 160609Z 21010KT 08/M03 A3012 RMK A01 T00831026  RH  046%=      5-min Rain = 0
KEN1 160610Z 21011KT 08/M03 A3012 RMK A01 T00831025  RH  046%=      5-min Rain = 0
KEN1 160611Z 20010KT 08/M03 A3012 RMK A01 T00831025  RH  046%=      5-min Rain = 0
KEN1 160612Z 20009KT 08/M03 A3012 RMK A01 T00841025  RH  046%=      5-min Rain = 0
KEN1 160613Z 21009KT 08/M03 A3012 RMK A01 T00831025  RH  046%=      5-min Rain = 0
KEN1 160614Z 21010KT 08/M03 A3012 RMK A01 T00821025  RH  047%=      5-min Rain = 0
KEN1 160615Z 20009KT 08/M03 A3012 RMK A01 T00821025  RH  047%=      5-min Rain = 0
KEN1 160616Z 20009KT 08/M03 A3012 RMK A01 T00811025  RH  047%=      5-min Rain = 0
KEN1 160617Z 21009KT 08/M03 A3012 RMK A01 T00801025  RH  047%=      5-min Rain = 0
KEN1 160618Z 21009KT 08/M03 A3012 RMK A01 T00791025  RH  048%=      5-min Rain = 0
KEN1 160619Z 21009KT 08/M03 A3012 RMK A01 T00781025  RH  048%=      5-min Rain = 0
KEN1 160620Z 21012KT 08/M03 A3012 RMK A01 T00781025  RH  048%=      5-min Rain = 0
KEN1 160621Z 21011KT 08/M02 A3012 RMK A01 T00801023  RH  048%=      5-min Rain = 0
KEN1 160622Z 21012KT 08/M02 A3012 RMK A01 T00821023  RH  048%=      5-min Rain = 0
KEN1 160623Z 21012KT 08/M02 A3012 RMK A01 T00831022  RH  047%=      5-min Rain = 0
KEN1 160624Z 21010KT 08/M02 A3012 RMK A01 T00841023  RH  047%=      5-min Rain = 0
KEN1 160625Z 21010KT 08/M02 A3012 RMK A01 T00831023  RH  047%=      5-min Rain = 0
KEN1 160626Z 21011KT 08/M02 A3012 RMK A01 T00821023  RH  048%=      5-min Rain = 0
KEN1 160627Z 21011KT 08/M02 A3012 RMK A01 T00811023  RH  048%=      5-min Rain = 0
KEN1 160628Z 21012KT 08/M02 A3012 RMK A01 T00801023  RH  048%=      5-min Rain = 0
KEN1 160629Z 21013KT 08/M02 A3012 RMK A01 T00811023  RH  048%=      5-min Rain = 0
KEN1 160630Z 21012KT 08/M02 A3012 RMK A01 T00811022  RH  048%=      5-min Rain = 0
KEN1 160631Z 21012KT 08/M02 A3012 RMK A01 T00811022  RH  048%=      5-min Rain = 0
KEN1 160632Z 21015KT 08/M02 A3012 RMK A01 T00811022  RH  048%=      5-min Rain = 0
KEN1 160633Z 21013KT 08/M02 A3012 RMK A01 T00821022  RH  048%=      5-min Rain = 0
KEN1 160634Z 21013KT 08/M02 A3012 RMK A01 T00821022  RH  048%=      5-min Rain = 0
KEN1 160635Z 21013KT 08/M02 A3012 RMK A01 T00811022  RH  048%=      5-min Rain = 0
KEN1 160636Z 21013KT 08/M02 A3012 RMK A01 T00811022  RH  048%=      5-min Rain = 0
KEN1 160637Z 21012KT 08/M02 A3012 RMK A01 T00801022  RH  048%=      5-min Rain = 0
KEN1 160638Z 21012KT 08/M02 A3012 RMK A01 T00801022  RH  048%=      5-min Rain = 0
KEN1 160639Z 21011KT 08/M02 A3012 RMK A01 T00791022  RH  049%=      5-min Rain = 0
KEN1 160640Z 21012KT 08/M02 A3012 RMK A01 T00781022  RH  049%=      5-min Rain = 0
KEN1 160641Z 21011KT 08/M02 A3012 RMK A01 T00781022  RH  049%=      5-min Rain = 0
KEN1 160642Z 21013KT 08/M02 A3012 RMK A01 T00771022  RH  049%=      5-min Rain = 0
KEN1 160643Z 21012KT 08/M02 A3012 RMK A01 T00781020  RH  050%=      5-min Rain = 0
KEN1 160644Z 21011KT 08/M02 A3012 RMK A01 T00801020  RH  049%=      5-min Rain = 0
KEN1 160645Z 21010KT 08/M02 A3012 RMK A01 T00801021  RH  049%=      5-min Rain = 0
KEN1 160646Z 21009KT 08/M02 A3012 RMK A01 T00781022  RH  049%=      5-min Rain = 0
KEN1 160647Z 21010KT 08/M02 A3012 RMK A01 T00761022  RH  050%=      5-min Rain = 0
KEN1 160648Z 21011KT 08/M02 A3012 RMK A01 T00751021  RH  050%=      5-min Rain = 0
KEN1 160649Z 22011KT 08/M02 A3012 RMK A01 T00771020  RH  050%=      5-min Rain = 0
KEN1 160650Z 21010KT 08/M02 A3012 RMK A01 T00781020  RH  050%=      5-min Rain = 0
KEN1 160651Z 21010KT 08/M02 A3012 RMK A01 T00781020  RH  050%=      5-min Rain = 0
KEN1 160652Z 21009KT 08/M02 A3012 RMK A01 T00781020  RH  050%=      5-min Rain = 0
KEN1 160653Z 22009KT 08/M02 A3012 RMK A01 T00771021  RH  050%=      5-min Rain = 0
KEN1 160654Z 21009KT 08/M02 A3012 RMK A01 T00761021  RH  050%=      5-min Rain = 0
KEN1 160655Z 21009KT 08/M02 A3012 RMK A01 T00751020  RH  051%=      5-min Rain = 0
KEN1 160656Z 21009KT 08/M02 A3012 RMK A01 T00751021  RH  051%=      5-min Rain = 0
KEN1 160657Z 21009KT 07/M02 A3012 RMK A01 T00741020  RH  051%=      5-min Rain = 0
KEN1 160658Z 21009KT 07/M02 A3012 RMK A01 T00731020  RH  051%=      5-min Rain = 0
KEN1 160659Z 21009KT 07/M02 A3012 RMK A01 T00731020  RH  052%=      5-min Rain = 0
KEN1 160700Z 21008KT 07/M02 A3012 RMK A01 T00721020  RH  052%=      5-min Rain = 0
KEN1 160701Z 21010KT 07/M02 A3012 RMK A01 T00711020  RH  052%=      5-min Rain = 0
KEN1 160702Z 21009KT 07/M02 A3011 RMK A01 T00721019  RH  052%=      5-min Rain = 0
KEN1 160703Z 21009KT 07/M02 A3011 RMK A01 T00731018  RH  052%=      5-min Rain = 0
KEN1 160704Z 21010KT 07/M02 A3011 RMK A01 T00741019  RH  052%=      5-min Rain = 0
KEN1 160705Z 21009KT 07/M02 A3011 RMK A01 T00741019  RH  052%=      5-min Rain = 0
KEN1 160706Z 21009KT 07/M02 A3011 RMK A01 T00741019  RH  052%=      5-min Rain = 0
KEN1 160707Z 20009KT 07/M02 A3011 RMK A01 T00731019  RH  052%=      5-min Rain = 0
KEN1 160708Z 20009KT 07/M02 A3011 RMK A01 T00741018  RH  052%=      5-min Rain = 0
KEN1 160709Z 21010KT 07/M02 A3011 RMK A01 T00741018  RH  052%=      5-min Rain = 0
KEN1 160710Z 20010KT 07/M02 A3011 RMK A01 T00741018  RH  052%=      5-min Rain = 0
KEN1 160711Z 21009KT 08/M02 A3011 RMK A01 T00751018  RH  052%=      5-min Rain = 0
KEN1 160712Z 21010KT 07/M02 A3011 RMK A01 T00741018  RH  052%=      5-min Rain = 0
KEN1 160713Z 20010KT 07/M02 A3011 RMK A01 T00741018  RH  052%=      5-min Rain = 0
KEN1 160714Z 21010KT 07/M02 A3011 RMK A01 T00741017  RH  052%=      5-min Rain = 0
KEN1 160715Z 21009KT 07/M02 A3011 RMK A01 T00741018  RH  052%=      5-min Rain = 0
KEN1 160716Z 21009KT 07/M02 A3011 RMK A01 T00731018  RH  052%=      5-min Rain = 0
KEN1 160717Z 20009KT 07/M02 A3011 RMK A01 T00731018  RH  053%=      5-min Rain = 0
KEN1 160718Z 21010KT 07/M02 A3011 RMK A01 T00731017  RH  053%=      5-min Rain = 0
KEN1 160719Z 21009KT 07/M02 A3011 RMK A01 T00721017  RH  053%=      5-min Rain = 0
KEN1 160720Z 21009KT 07/M02 A3011 RMK A01 T00721017  RH  053%=      5-min Rain = 0
KEN1 160721Z 21009KT 07/M02 A3011 RMK A01 T00721017  RH  053%=      5-min Rain = 0
KEN1 160722Z 21010KT 07/M02 A3011 RMK A01 T00721017  RH  053%=      5-min Rain = 0
KEN1 160723Z 20010KT 07/M02 A3011 RMK A01 T00731017  RH  053%=      5-min Rain = 0
KEN1 160724Z 21010KT 07/M02 A3011 RMK A01 T00731017  RH  053%=      5-min Rain = 0
KEN1 160725Z 20010KT 07/M02 A3011 RMK A01 T00731017  RH  053%=      5-min Rain = 0
KEN1 160726Z 20010KT 07/M02 A3011 RMK A01 T00731017  RH  053%=      5-min Rain = 0
KEN1 160727Z 20011KT 07/M02 A301 RMK A01 T00721017  RH  053%=      5-min Rain = 0
KEN1 160728Z 20010KT 07/M02 A301 RMK A01 T00721017  RH  053%=      5-min Rain = 0
KEN1 160729Z 20010KT 07/M02 A301 RMK A01 T00731017  RH  053%=      5-min Rain = 0
KEN1 160730Z 21011KT 07/M02 A301 RMK A01 T00741017  RH  053%=      5-min Rain = 0
KEN1 160731Z 20010KT 07/M02 A301 RMK A01 T00741016  RH  053%=      5-min Rain = 0
KEN1 160732Z 21009KT 07/M02 A301 RMK A01 T00741017  RH  052%=      5-min Rain = 0
KEN1 160733Z 21008KT 07/M02 A301 RMK A01 T00731018  RH  053%=      5-min Rain = 0
KEN1 160734Z 21009KT 07/M02 A301 RMK A01 T00721018  RH  053%=      5-min Rain = 0
KEN1 160735Z 21009KT 07/M02 A301 RMK A01 T00711017  RH  053%=      5-min Rain = 0
KEN1 160736Z 21008KT 07/M02 A301 RMK A01 T00711017  RH  053%=      5-min Rain = 0
KEN1 160737Z 21008KT 07/M02 A301 RMK A01 T00721017  RH  053%=      5-min Rain = 0
KEN1 160738Z 21009KT 07/M02 A301 RMK A01 T00711017  RH  053%=      5-min Rain = 0
KEN1 160739Z 21009KT 07/M02 A301 RMK A01 T00711017  RH  054%=      5-min Rain = 0
KEN1 160740Z 21009KT 07/M02 A301 RMK A01 T00701017  RH  054%=      5-min Rain = 0
KEN1 160741Z 21009KT 07/M02 A301 RMK A01 T00701017  RH  054%=      5-min Rain = 0
KEN1 160742Z 21008KT 07/M02 A301 RMK A01 T00701017  RH  054%=      5-min Rain = 0
KEN1 160743Z 21007KT 07/M02 A301 RMK A01 T00701017  RH  054%=      5-min Rain = 0
KEN1 160744Z 22006KT 07/M02 A301 RMK A01 T00691017  RH  054%=      5-min Rain = 0
KEN1 160745Z 22006KT 07/M02 A301 RMK A01 T00671018  RH  055%=      5-min Rain = 0
KEN1 160746Z 21008KT 07/M02 A301 RMK A01 T00681017  RH  055%=      5-min Rain = 0
KEN1 160747Z 22008KT 07/M02 A301 RMK A01 T00671017  RH  055%=      5-min Rain = 0
KEN1 160748Z 22007KT 07/M02 A301 RMK A01 T00691016  RH  055%=      5-min Rain = 0
KEN1 160749Z 21007KT 07/M02 A301 RMK A01 T00691017  RH  055%=      5-min Rain = 0
KEN1 160750Z 22006KT 07/M02 A301 RMK A01 T00691017  RH  054%=      5-min Rain = 0
KEN1 160751Z 22006KT 07/M02 A301 RMK A01 T00681017  RH  055%=      5-min Rain = 0
KEN1 160752Z 22007KT 07/M02 A301 RMK A01 T00671017  RH  055%=      5-min Rain = 0
KEN1 160753Z 21007KT 07/M02 A301 RMK A01 T00671017  RH  055%=      5-min Rain = 0
KEN1 160754Z 21007KT 07/M02 A301 RMK A01 T00661017  RH  056%=      5-min Rain = 0
KEN1 160755Z 21008KT 07/M02 A301 RMK A01 T00651017  RH  056%=      5-min Rain = 0
KEN1 160756Z 22008KT 06/M02 A301 RMK A01 T00641017  RH  056%=      5-min Rain = 0
KEN1 160757Z 21007KT 06/M02 A301 RMK A01 T00641016  RH  056%=      5-min Rain = 0
KEN1 160758Z 21007KT 07/M02 A301 RMK A01 T00651016  RH  056%=      5-min Rain = 0
KEN1 160759Z 21007KT 06/M02 A301 RMK A01 T00641016  RH  056%=      5-min Rain = 0
KEN1 160800Z 21007KT 06/M02 A301 RMK A01 T00641016  RH  057%=      5-min Rain = 0
KEN1 160801Z 21007KT 06/M02 A301 RMK A01 T00641016  RH  057%=      5-min Rain = 0
KEN1 160802Z 22006KT 06/M02 A301 RMK A01 T00641016  RH  056%=      5-min Rain = 0
KEN1 160803Z 21006KT 06/M02 A301 RMK A01 T00641016  RH  056%=      5-min Rain = 0
KEN1 160804Z 22006KT 06/M02 A301 RMK A01 T00641016  RH  057%=      5-min Rain = 0
KEN1 160805Z 22005KT 06/M02 A301 RMK A01 T00641016  RH  057%=      5-min Rain = 0
KEN1 160806Z 22005KT 06/M02 A301 RMK A01 T00631016  RH  057%=      5-min Rain = 0
KEN1 160807Z 21005KT 06/M02 A301 RMK A01 T00621017  RH  057%=      5-min Rain = 0
KEN1 160808Z 21005KT 06/M02 A301 RMK A01 T00611017  RH  057%=      5-min Rain = 0
KEN1 160809Z 22006KT 06/M02 A301 RMK A01 T00601017  RH  058%=      5-min Rain = 0
KEN1 160810Z 22005KT 06/M02 A301 RMK A01 T00601017  RH  058%=      5-min Rain = 0
KEN1 160811Z 21006KT 06/M02 A301 RMK A01 T00601016  RH  058%=      5-min Rain = 0
KEN1 160812Z 21006KT 06/M02 A3009 RMK A01 T00601016  RH  058%=      5-min Rain = 0
KEN1 160813Z 21006KT 06/M02 A3009 RMK A01 T00611016  RH  058%=      5-min Rain = 0
KEN1 160814Z 21006KT 06/M02 A3009 RMK A01 T00601016  RH  058%=      5-min Rain = 0
KEN1 160815Z 21006KT 06/M02 A3009 RMK A01 T00601016  RH  058%=      5-min Rain = 0
KEN1 160816Z 21006KT 06/M02 A3009 RMK A01 T00601016  RH  058%=      5-min Rain = 0
KEN1 160817Z 21006KT 06/M02 A3009 RMK A01 T00601016  RH  058%=      5-min Rain = 0
KEN1 160818Z 21006KT 06/M02 A3009 RMK A01 T00591016  RH  058%=      5-min Rain = 0
KEN1 160819Z 21006KT 06/M02 A3009 RMK A01 T00591016  RH  059%=      5-min Rain = 0
KEN1 160820Z 21006KT 06/M02 A3009 RMK A01 T00581017  RH  059%=      5-min Rain = 0
KEN1 160821Z 21007KT 06/M02 A3009 RMK A01 T00581016  RH  059%=      5-min Rain = 0
KEN1 160822Z 21006KT 06/M02 A3009 RMK A01 T00581016  RH  059%=      5-min Rain = 0
KEN1 160823Z 21006KT 06/M02 A3009 RMK A01 T00581016  RH  059%=      5-min Rain = 0
KEN1 160824Z 21006KT 06/M02 A3009 RMK A01 T00581016  RH  059%=      5-min Rain = 0
KEN1 160825Z 21006KT 06/M02 A3009 RMK A01 T00581015  RH  059%=      5-min Rain = 0
KEN1 160826Z 21006KT 06/M02 A3009 RMK A01 T00581015  RH  059%=      5-min Rain = 0
KEN1 160827Z 21006KT 06/M02 A3009 RMK A01 T00581015  RH  059%=      5-min Rain = 0
KEN1 160828Z 21006KT 06/M02 A3009 RMK A01 T00581015  RH  059%=      5-min Rain = 0
KEN1 160829Z 21006KT 06/M02 A3009 RMK A01 T00581015  RH  059%=      5-min Rain = 0
KEN1 160830Z 21006KT 06/M02 A3009 RMK A01 T00591015  RH  059%=      5-min Rain = 0
KEN1 160831Z 21006KT 06/M02 A3009 RMK A01 T00581015  RH  059%=      5-min Rain = 0
KEN1 160832Z 21006KT 06/M02 A3009 RMK A01 T00571015  RH  059%=      5-min Rain = 0
KEN1 160833Z 21006KT 06/M02 A3009 RMK A01 T00571015  RH  060%=      5-min Rain = 0
KEN1 160834Z 21005KT 06/M02 A3009 RMK A01 T00571016  RH  059%=      5-min Rain = 0
KEN1 160835Z 22005KT 06/M02 A3009 RMK A01 T00571016  RH  060%=      5-min Rain = 0
KEN1 160836Z 21006KT 06/M02 A3009 RMK A01 T00561016  RH  060%=      5-min Rain = 0
KEN1 160837Z 21006KT 06/M02 A3009 RMK A01 T00551016  RH  060%=      5-min Rain = 0
KEN1 160838Z 21006KT 05/M02 A3009 RMK A01 T00541016  RH  060%=      5-min Rain = 0
KEN1 160839Z 21006KT 05/M02 A3009 RMK A01 T00541016  RH  061%=      5-min Rain = 0
KEN1 160840Z 21005KT 05/M02 A3009 RMK A01 T00531017  RH  061%=      5-min Rain = 0
KEN1 160841Z 21005KT 05/M02 A3009 RMK A01 T00531017  RH  061%=      5-min Rain = 0
KEN1 160842Z 22005KT 05/M02 A3009 RMK A01 T00531016  RH  061%=      5-min Rain = 0
KEN1 160843Z 22005KT 05/M02 A3009 RMK A01 T00521017  RH  061%=      5-min Rain = 0
KEN1 160844Z 22005KT 05/M02 A3009 RMK A01 T00511017  RH  061%=      5-min Rain = 0
KEN1 160845Z 22004KT 05/M02 A3009 RMK A01 T00511017  RH  062%=      5-min Rain = 0
KEN1 160846Z 22004KT 05/M02 A3009 RMK A01 T00521016  RH  062%=      5-min Rain = 0
KEN1 160847Z 22003KT 05/M02 A3009 RMK A01 T00531016  RH  061%=      5-min Rain = 0
KEN1 160848Z 22004KT 05/M02 A3009 RMK A01 T00531017  RH  061%=      5-min Rain = 0
KEN1 160849Z 22003KT 05/M02 A3009 RMK A01 T00531016  RH  061%=      5-min Rain = 0
KEN1 160850Z 23004KT 05/M02 A3009 RMK A01 T00541015  RH  061%=      5-min Rain = 0
KEN1 160851Z 22003KT 06/M02 A3009 RMK A01 T00561015  RH  060%=      5-min Rain = 0
KEN1 160852Z 24005KT 06/M02 A3009 RMK A01 T00561015  RH  060%=      5-min Rain = 0
KEN1 160853Z 23005KT 06/M01 A3009 RMK A01 T00581014  RH  060%=      5-min Rain = 0
KEN1 160854Z 22006KT 06/M01 A3009 RMK A01 T00601013  RH  060%=      5-min Rain = 0
KEN1 160855Z 22007KT 06/M01 A3009 RMK A01 T00631011  RH  059%=      5-min Rain = 0
KEN1 160856Z 22006KT 07/M01 A3009 RMK A01 T00651011  RH  058%=      5-min Rain = 0
KEN1 160857Z 24007KT 06/M01 A3009 RMK A01 T00641012  RH  058%=      5-min Rain = 0
KEN1 160858Z 23009KT 06/M01 A3009 RMK A01 T00641011  RH  058%=      5-min Rain = 0
KEN1 160859Z 22009KT 07/M01 A3009 RMK A01 T00681010  RH  058%=      5-min Rain = 0
KEN1 160900Z 22008KT 07/M01 A3009 RMK A01 T00691010  RH  057%=      5-min Rain = 0
KEN1 160901Z 22007KT 07/M01 A3009 RMK A01 T00691010  RH  057%=      5-min Rain = 0
KEN1 160902Z 22008KT 07/M01 A3009 RMK A01 T00691010  RH  057%=      5-min Rain = 0
KEN1 160903Z 22007KT 07/M01 A3009 RMK A01 T00701010  RH  057%=      5-min Rain = 0
KEN1 160904Z 22007KT 07/M01 A3009 RMK A01 T00691011  RH  057%=      5-min Rain = 0
KEN1 160905Z 23008KT 07/M01 A3009 RMK A01 T00681011  RH  057%=      5-min Rain = 0
KEN1 160906Z 23009KT 07/M01 A3009 RMK A01 T00671011  RH  057%=      5-min Rain = 0
KEN1 160907Z 23009KT 07/M01 A3009 RMK A01 T00681011  RH  057%=      5-min Rain = 0
KEN1 160908Z 23010KT 07/M01 A3008 RMK A01 T00681011  RH  057%=      5-min Rain = 0
KEN1 160909Z 23009KT 07/M01 A3008 RMK A01 T00691011  RH  057%=      5-min Rain = 0
KEN1 160910Z 23010KT 07/M01 A3008 RMK A01 T00681011  RH  057%=      5-min Rain = 0
KEN1 160911Z 23011KT 07/M01 A3008 RMK A01 T00681010  RH  057%=      5-min Rain = 0
KEN1 160912Z 22011KT 07/M01 A3008 RMK A01 T00681010  RH  058%=      5-min Rain = 0
KEN1 160913Z 22009KT 07/M01 A3008 RMK A01 T00691010  RH  057%=      5-min Rain = 0
KEN1 160914Z 22009KT 07/M01 A3008 RMK A01 T00691010  RH  057%=      5-min Rain = 0
KEN1 160915Z 22010KT 07/M01 A3008 RMK A01 T00691010  RH  057%=      5-min Rain = 0
KEN1 160916Z 22012KT 07/M01 A3008 RMK A01 T00701009  RH  057%=      5-min Rain = 0
KEN1 160917Z 22011KT 07/M01 A3008 RMK A01 T00721009  RH  057%=      5-min Rain = 0
KEN1 160918Z 22013KT 07/M01 A3008 RMK A01 T00721008  RH  057%=      5-min Rain = 0
KEN1 160919Z 22015KT 07/M01 A3008 RMK A01 T00721008  RH  057%=      5-min Rain = 0
KEN1 160920Z 22015KT 08/M01 A3008 RMK A01 T00751007  RH  056%=      5-min Rain = 0
KEN1 160921Z 22016KT 08/M01 A3008 RMK A01 T00761008  RH  055%=      5-min Rain = 0
KEN1 160922Z 22016KT 08/M01 A3008 RMK A01 T00781007  RH  055%=      5-min Rain = 0
KEN1 160923Z 22015KT 08/M01 A3008 RMK A01 T00791008  RH  054%=      5-min Rain = 0
KEN1 160924Z 22015KT 08/M01 A3008 RMK A01 T00791008  RH  054%=      5-min Rain = 0
KEN1 160925Z 22016KT 08/M01 A3007 RMK A01 T00781008  RH  054%=      5-min Rain = 0
KEN1 160926Z 22017KT 08/M01 A3007 RMK A01 T00781008  RH  054%=      5-min Rain = 0
KEN1 160927Z 22017KT 08/M01 A3007 RMK A01 T00791008  RH  054%=      5-min Rain = 0
KEN1 160928Z 22016KT 08/M01 A3007 RMK A01 T00801008  RH  054%=      5-min Rain = 0
KEN1 160929Z 23019KT 08/M01 A3007 RMK A01 T00801008  RH  054%=      5-min Rain = 0
KEN1 160930Z 22019KT 08/M01 A3007 RMK A01 T00811008  RH  053%=      5-min Rain = 0
KEN1 160931Z 23019KT 08/M01 A3007 RMK A01 T00821008  RH  053%=      5-min Rain = 0
KEN1 160932Z 23019KT 08/M01 A3008 RMK A01 T00831008  RH  053%=      5-min Rain = 0
KEN1 160933Z 23017G22KT 08/M01 A3008 RMK A01 T00831008  RH  053%=      5-min Rain = 0
KEN1 160934Z 22016KT 08/M01 A3008 RMK A01 T00831008  RH  053%=      5-min Rain = 0
KEN1 160935Z 23015KT 08/M01 A3008 RMK A01 T00831008  RH  053%=      5-min Rain = 0
KEN1 160936Z 22012KT 08/M01 A3008 RMK A01 T00811009  RH  053%=      5-min Rain = 0
KEN1 160937Z 22012KT 08/M01 A3008 RMK A01 T00791009  RH  054%=      5-min Rain = 0
KEN1 160938Z 22013KT 08/M01 A3008 RMK A01 T00781009  RH  054%=      5-min Rain = 0
KEN1 160939Z 22011KT 08/M01 A3008 RMK A01 T00781008  RH  054%=      5-min Rain = 0
KEN1 160940Z 22012KT 08/M01 A3008 RMK A01 T00771009  RH  055%=      5-min Rain = 0
KEN1 160941Z 21012KT 08/M01 A3008 RMK A01 T00761009  RH  055%=      5-min Rain = 0
KEN1 160942Z 21012KT 08/M01 A3008 RMK A01 T00761009  RH  055%=      5-min Rain = 0
KEN1 160943Z 21013KT 08/M01 A3008 RMK A01 T00761009  RH  055%=      5-min Rain = 0
KEN1 160944Z 21012KT 08/M01 A3007 RMK A01 T00771009  RH  055%=      5-min Rain = 0
KEN1 160945Z 21012KT 08/M01 A3007 RMK A01 T00771009  RH  054%=      5-min Rain = 0
KEN1 160946Z 21012KT 08/M01 A3007 RMK A01 T00771009  RH  055%=      5-min Rain = 0
KEN1 160947Z 21013KT 08/M01 A3007 RMK A01 T00761009  RH  055%=      5-min Rain = 0
KEN1 160948Z 21011KT 08/M01 A3007 RMK A01 T00761009  RH  055%=      5-min Rain = 0
KEN1 160949Z 20011KT 08/M01 A3007 RMK A01 T00761009  RH  055%=      5-min Rain = 0
KEN1 160950Z 20012KT 08/M01 A3007 RMK A01 T00761009  RH  055%=      5-min Rain = 0
KEN1 160951Z 21010KT 08/M01 A3007 RMK A01 T00761009  RH  055%=      5-min Rain = 0
KEN1 160952Z 21009KT 08/M01 A3007 RMK A01 T00761009  RH  055%=      5-min Rain = 0
KEN1 160953Z 20009KT 08/M01 A3007 RMK A01 T00751009  RH  055%=      5-min Rain = 0
KEN1 160954Z 20009KT 08/M01 A3007 RMK A01 T00751010  RH  055%=      5-min Rain = 0
KEN1 160955Z 20010KT 07/M01 A3007 RMK A01 T00741010  RH  055%=      5-min Rain = 0
KEN1 160956Z 21010KT 07/M01 A3007 RMK A01 T00731010  RH  056%=      5-min Rain = 0
KEN1 160957Z 21010KT 07/M01 A3007 RMK A01 T00731010  RH  056%=      5-min Rain = 0
KEN1 160958Z 21011KT 07/M01 A3007 RMK A01 T00731010  RH  056%=      5-min Rain = 0
KEN1 160959Z 20008KT 07/M01 A3007 RMK A01 T00731010  RH  056%=      5-min Rain = 0
KEN1 161000Z 20008KT 07/M01 A3007 RMK A01 T00731010  RH  056%=      5-min Rain = 0
KEN1 161001Z 21008KT 07/M01 A3007 RMK A01 T00721010  RH  056%=      5-min Rain = 0
KEN1 161002Z 21007KT 07/M01 A3007 RMK A01 T00721010  RH  056%=      5-min Rain = 0
KEN1 161003Z 23009KT 07/M01 A3007 RMK A01 T00711010  RH  056%=      5-min Rain = 0
KEN1 161004Z 22006KT 07/M01 A3007 RMK A01 T00721010  RH  056%=      5-min Rain = 0
KEN1 161005Z 21005KT 07/M01 A3007 RMK A01 T00731010  RH  056%=      5-min Rain = 0
KEN1 161006Z 22004KT 07/M01 A3007 RMK A01 T00721010  RH  056%=      5-min Rain = 0
KEN1 161007Z 22005KT 07/M01 A3007 RMK A01 T00711011  RH  056%=      5-min Rain = 0
KEN1 161008Z 22005KT 07/M01 A3007 RMK A01 T00701011  RH  056%=      5-min Rain = 0
KEN1 161009Z 22004KT 07/M01 A3007 RMK A01 T00691011  RH  057%=      5-min Rain = 0
KEN1 161010Z 21004KT 07/M01 A3007 RMK A01 T00671011  RH  057%=      5-min Rain = 0
KEN1 161011Z 21005KT 07/M01 A3007 RMK A01 T00671011  RH  057%=      5-min Rain = 0
KEN1 161012Z 21005KT 07/M01 A3007 RMK A01 T00661011  RH  058%=      5-min Rain = 0
KEN1 161013Z 22005KT 07/M01 A3007 RMK A01 T00661011  RH  058%=      5-min Rain = 0
KEN1 161014Z 22006KT 07/M01 A3007 RMK A01 T00651012  RH  058%=      5-min Rain = 0
KEN1 161015Z 22006KT 06/M01 A3007 RMK A01 T00641012  RH  058%=      5-min Rain = 0
KEN1 161016Z 23006KT 06/M01 A3007 RMK A01 T00641011  RH  058%=      5-min Rain = 0
KEN1 161017Z 23007KT 06/M01 A3007 RMK A01 T00641011  RH  058%=      5-min Rain = 0
KEN1 161018Z 23006KT 06/M01 A3007 RMK A01 T00641011  RH  058%=      5-min Rain = 0
KEN1 161019Z 24007KT 06/M01 A3007 RMK A01 T00641011  RH  058%=      5-min Rain = 0
KEN1 161020Z 23007KT 07/M01 A3007 RMK A01 T00661011  RH  058%=      5-min Rain = 0
KEN1 161021Z 24007KT 07/M01 A3007 RMK A01 T00671011  RH  058%=      5-min Rain = 0
KEN1 161022Z 24007KT 07/M01 A3007 RMK A01 T00691010  RH  057%=      5-min Rain = 0
KEN1 161023Z 24008KT 07/M01 A3007 RMK A01 T00701010  RH  057%=      5-min Rain = 0
KEN1 161024Z 24008KT 07/M01 A3007 RMK A01 T00701011  RH  056%=      5-min Rain = 0
KEN1 161025Z 24008KT 07/M01 A3007 RMK A01 T00701011  RH  056%=      5-min Rain = 0
KEN1 161026Z 24009KT 07/M01 A3007 RMK A01 T00711011  RH  056%=      5-min Rain = 0
KEN1 161027Z 24008KT 07/M01 A3007 RMK A01 T00711011  RH  056%=      5-min Rain = 0
KEN1 161028Z 24008KT 07/M01 A3007 RMK A01 T00711011  RH  056%=      5-min Rain = 0
KEN1 161029Z 24008KT 07/M01 A3007 RMK A01 T00691011  RH  056%=      5-min Rain = 0
KEN1 161030Z 23008KT 07/M01 A3007 RMK A01 T00691011  RH  057%=      5-min Rain = 0
KEN1 161031Z 23009KT 07/M01 A3007 RMK A01 T00681011  RH  057%=      5-min Rain = 0
KEN1 161032Z 23008KT 07/M01 A3007 RMK A01 T00681011  RH  057%=      5-min Rain = 0
KEN1 161033Z 23008KT 07/M01 A3007 RMK A01 T00671011  RH  057%=      5-min Rain = 0
KEN1 161034Z 22008KT 07/M01 A3006 RMK A01 T00671011  RH  057%=      5-min Rain = 0
KEN1 161035Z 22009KT 07/M01 A3006 RMK A01 T00661012  RH  058%=      5-min Rain = 0
KEN1 161036Z 22009KT 07/M01 A3006 RMK A01 T00651012  RH  058%=      5-min Rain = 0
KEN1 161037Z 22009KT 07/M01 A3006 RMK A01 T00651012  RH  058%=      5-min Rain = 0
KEN1 161038Z 22009KT 07/M01 A3006 RMK A01 T00651012  RH  058%=      5-min Rain = 0
KEN1 161039Z 22010KT 06/M01 A3006 RMK A01 T00641012  RH  058%=      5-min Rain = 0
KEN1 161040Z 22010KT 06/M01 A3006 RMK A01 T00641012  RH  058%=      5-min Rain = 0
KEN1 161041Z 21009KT 06/M01 A3006 RMK A01 T00641011  RH  058%=      5-min Rain = 0
KEN1 161042Z 21008KT 06/M01 A3006 RMK A01 T00641012  RH  058%=      5-min Rain = 0
KEN1 161043Z 21007KT 06/M01 A3006 RMK A01 T00641011  RH  058%=      5-min Rain = 0
KEN1 161044Z 21007KT 06/M01 A3006 RMK A01 T00641012  RH  059%=      5-min Rain = 0
KEN1 161045Z 21006KT 06/M01 A3007 RMK A01 T00631012  RH  059%=      5-min Rain = 0
KEN1 161046Z 20006KT 06/M01 A3007 RMK A01 T00621012  RH  059%=      5-min Rain = 0
KEN1 161047Z 20005KT 06/M01 A3007 RMK A01 T00621012  RH  059%=      5-min Rain = 0
KEN1 161048Z 20005KT 06/M01 A3007 RMK A01 T00621012  RH  059%=      5-min Rain = 0
KEN1 161049Z 21005KT 06/M01 A3007 RMK A01 T00611012  RH  060%=      5-min Rain = 0
KEN1 161050Z 21005KT 06/M01 A3007 RMK A01 T00601012  RH  060%=      5-min Rain = 0
KEN1 161051Z 21005KT 06/M01 A3007 RMK A01 T00601011  RH  060%=      5-min Rain = 0
KEN1 161052Z 21005KT 06/M01 A3007 RMK A01 T00591011  RH  060%=      5-min Rain = 0
KEN1 161053Z 21006KT 06/M01 A3007 RMK A01 T00591011  RH  061%=      5-min Rain = 0
KEN1 161054Z 20006KT 06/M01 A3007 RMK A01 T00591011  RH  061%=      5-min Rain = 0
KEN1 161055Z 20006KT 06/M01 A3007 RMK A01 T00581011  RH  061%=      5-min Rain = 0
KEN1 161056Z 20006KT 06/M01 A3007 RMK A01 T00581011  RH  061%=      5-min Rain = 0
KEN1 161057Z 20007KT 06/M01 A3007 RMK A01 T00581011  RH  061%=      5-min Rain = 0
KEN1 161058Z 19007KT 06/M01 A3007 RMK A01 T00581011  RH  061%=      5-min Rain = 0
KEN1 161059Z 19008KT 06/M01 A3007 RMK A01 T00581011  RH  061%=      5-min Rain = 0
KEN1 161100Z 19007KT 06/M01 A3007 RMK A01 T00581011  RH  061%=      5-min Rain = 0
KEN1 161101Z 20007KT 06/M01 A3007 RMK A01 T00591011  RH  061%=      5-min Rain = 0
KEN1 161102Z 19006KT 06/M01 A3006 RMK A01 T00601011  RH  061%=      5-min Rain = 0
KEN1 161103Z 19006KT 06/M01 A3006 RMK A01 T00601011  RH  060%=      5-min Rain = 0
KEN1 161104Z 20006KT 06/M01 A3006 RMK A01 T00601011  RH  060%=      5-min Rain = 0
KEN1 161105Z 20006KT 06/M01 A3006 RMK A01 T00601011  RH  060%=      5-min Rain = 0
KEN1 161106Z 20006KT 06/M01 A3006 RMK A01 T00601011  RH  060%=      5-min Rain = 0
KEN1 161107Z 20006KT 06/M01 A3006 RMK A01 T00601011  RH  061%=      5-min Rain = 0
KEN1 161108Z 20007KT 06/M01 A3006 RMK A01 T00601011  RH  061%=      5-min Rain = 0
KEN1 161109Z 20007KT 06/M01 A3006 RMK A01 T00591011  RH  061%=      5-min Rain = 0
KEN1 161110Z 20006KT 06/M01 A3006 RMK A01 T00591011  RH  061%=      5-min Rain = 0
KEN1 161111Z 20007KT 06/M01 A3006 RMK A01 T00591011  RH  061%=      5-min Rain = 0
KEN1 161112Z 20008KT 06/M01 A3006 RMK A01 T00591011  RH  061%=      5-min Rain = 0
KEN1 161113Z 20009KT 06/M01 A3006 RMK A01 T00591010  RH  061%=      5-min Rain = 0
KEN1 161114Z 20009KT 06/M01 A3006 RMK A01 T00611010  RH  060%=      5-min Rain = 0
KEN1 161115Z 20009KT 06/M01 A3006 RMK A01 T00641009  RH  060%=      5-min Rain = 0
KEN1 161116Z 20008KT 07/M01 A3006 RMK A01 T00661009  RH  059%=      5-min Rain = 0
KEN1 161117Z 20007KT 07/M01 A3006 RMK A01 T00671010  RH  058%=      5-min Rain = 0
KEN1 161118Z 20007KT 07/M01 A3006 RMK A01 T00671010  RH  058%=      5-min Rain = 0
KEN1 161119Z 20007KT 07/M01 A3006 RMK A01 T00671010  RH  058%=      5-min Rain = 0
KEN1 161120Z 21007KT 07/M01 A3006 RMK A01 T00681010  RH  058%=      5-min Rain = 0
KEN1 161121Z 21007KT 07/M01 A3006 RMK A01 T00671010  RH  058%=      5-min Rain = 0
KEN1 161122Z 21007KT 07/M01 A3006 RMK A01 T00671010  RH  058%=      5-min Rain = 0
KEN1 161123Z 20008KT 07/M01 A3006 RMK A01 T00661011  RH  058%=      5-min Rain = 0
KEN1 161124Z 20007KT 07/M01 A3006 RMK A01 T00651011  RH  058%=      5-min Rain = 0
KEN1 161125Z 20007KT 07/M01 A3006 RMK A01 T00651011  RH  058%=      5-min Rain = 0
KEN1 161126Z 21007KT 06/M01 A3006 RMK A01 T00641011  RH  058%=      5-min Rain = 0
KEN1 161127Z 21006KT 06/M01 A3006 RMK A01 T00631011  RH  059%=      5-min Rain = 0
KEN1 161128Z 21007KT 06/M01 A3006 RMK A01 T00621012  RH  059%=      5-min Rain = 0
KEN1 161129Z 21008KT 06/M01 A3006 RMK A01 T00611012  RH  060%=      5-min Rain = 0
KEN1 161130Z 21008KT 06/M01 A3006 RMK A01 T00611012  RH  060%=      5-min Rain = 0
KEN1 161131Z 21008KT 06/M01 A3006 RMK A01 T00631011  RH  059%=      5-min Rain = 0
KEN1 161132Z 21008KT 06/M01 A3006 RMK A01 T00621011  RH  059%=      5-min Rain = 0
KEN1 161133Z 20007KT 06/M01 A3006 RMK A01 T00631011  RH  059%=      5-min Rain = 0
KEN1 161134Z 20008KT 06/M01 A3006 RMK A01 T00641011  RH  059%=      5-min Rain = 0
KEN1 161135Z 20007KT 06/M01 A3006 RMK A01 T00641012  RH  058%=      5-min Rain = 0
KEN1 161136Z 20007KT 06/M01 A3006 RMK A01 T00641011  RH  058%=      5-min Rain = 0
KEN1 161137Z 20008KT 07/M01 A3006 RMK A01 T00661011  RH  058%=      5-min Rain = 0
KEN1 161138Z 20008KT 07/M01 A3006 RMK A01 T00671011  RH  057%=      5-min Rain = 0
KEN1 161139Z 20009KT 07/M01 A3006 RMK A01 T00681011  RH  057%=      5-min Rain = 0
KEN1 161140Z 20009KT 07/M01 A3006 RMK A01 T00691011  RH  057%=      5-min Rain = 0
KEN1 161141Z 20009KT 07/M01 A3006 RMK A01 T00691011  RH  057%=      5-min Rain = 0
KEN1 161142Z 20009KT 07/M01 A3005 RMK A01 T00701011  RH  056%=      5-min Rain = 0
KEN1 161143Z 20009KT 07/M01 A3005 RMK A01 T00711011  RH  056%=      5-min Rain = 0
KEN1 161144Z 21010KT 07/M01 A3005 RMK A01 T00711011  RH  056%=      5-min Rain = 0
KEN1 161145Z 20009KT 07/M01 A3005 RMK A01 T00721010  RH  056%=      5-min Rain = 0
KEN1 161146Z 20009KT 07/M01 A3005 RMK A01 T00721011  RH  056%=      5-min Rain = 0
KEN1 161147Z 21008KT 07/M01 A3005 RMK A01 T00711011  RH  056%=      5-min Rain = 0
KEN1 161148Z 20008KT 07/M01 A3005 RMK A01 T00701011  RH  056%=      5-min Rain = 0
KEN1 161149Z 20008KT 07/M01 A3005 RMK A01 T00691011  RH  057%=      5-min Rain = 0
KEN1 161150Z 20008KT 07/M01 A3005 RMK A01 T00681011  RH  057%=      5-min Rain = 0
KEN1 161151Z 21008KT 07/M01 A3005 RMK A01 T00681011  RH  057%=      5-min Rain = 0
KEN1 161152Z 20008KT 07/M01 A3005 RMK A01 T00681011  RH  057%=      5-min Rain = 0
KEN1 161153Z 20007KT 07/M01 A3005 RMK A01 T00671011  RH  058%=      5-min Rain = 0
KEN1 161154Z 20007KT 07/M01 A3005 RMK A01 T00661011  RH  058%=      5-min Rain = 0
KEN1 161155Z 19006KT 07/M01 A3005 RMK A01 T00661011  RH  058%=      5-min Rain = 0
KEN1 161156Z 17005KT 06/M01 A3005 RMK A01 T00641012  RH  058%=      5-min Rain = 0
KEN1 161157Z 17007KT 06/M01 A3005 RMK A01 T00621012  RH  059%=      5-min Rain = 0
KEN1 161158Z 18006KT 06/M01 A3005 RMK A01 T00621012  RH  059%=      5-min Rain = 0
KEN1 161159Z 18006KT 06/M01 A3005 RMK A01 T00631013  RH  059%=      5-min Rain = 0
KEN1 161200Z 19005KT 06/M01 A3005 RMK A01 T00641012  RH  058%=      5-min Rain = 0
KEN1 161201Z 19006KT 07/M01 A3005 RMK A01 T00661012  RH  057%=      5-min Rain = 0
KEN1 161202Z 18005KT 07/M01 A3005 RMK A01 T00681012  RH  057%=      5-min Rain = 0
KEN1 161203Z 18006KT 07/M01 A3005 RMK A01 T00671012  RH  057%=      5-min Rain = 0
KEN1 161204Z 18006KT 06/M01 A3005 RMK A01 T00631013  RH  058%=      5-min Rain = 0
KEN1 161205Z 18006KT 06/M01 A3006 RMK A01 T00621012  RH  059%=      5-min Rain = 0
KEN1 161206Z 19007KT 06/M01 A3006 RMK A01 T00611012  RH  060%=      5-min Rain = 0
KEN1 161207Z 19007KT 06/M01 A3005 RMK A01 T00601013  RH  060%=      5-min Rain = 0
KEN1 161208Z 19006KT 06/M01 A3005 RMK A01 T00601013  RH  060%=      5-min Rain = 0
KEN1 161209Z 19006KT 06/M01 A3005 RMK A01 T00611013  RH  059%=      5-min Rain = 0
KEN1 161210Z 19006KT 06/M01 A3005 RMK A01 T00621012  RH  059%=      5-min Rain = 0
KEN1 161211Z 20007KT 06/M01 A3005 RMK A01 T00631012  RH  059%=      5-min Rain = 0
KEN1 161212Z 19007KT 06/M01 A3005 RMK A01 T00621013  RH  059%=      5-min Rain = 0
KEN1 161213Z 20007KT 06/M01 A3005 RMK A01 T00621013  RH  059%=      5-min Rain = 0
KEN1 161214Z 19007KT 06/M01 A3005 RMK A01 T00611013  RH  059%=      5-min Rain = 0
KEN1 161215Z 19007KT 06/M01 A3005 RMK A01 T00591014  RH  060%=      5-min Rain = 0
KEN1 161216Z 19007KT 06/M01 A3005 RMK A01 T00561014  RH  061%=      5-min Rain = 0
KEN1 161217Z 19007KT 05/M01 A3005 RMK A01 T00531014  RH  062%=      5-min Rain = 0
KEN1 161218Z 19007KT 05/M01 A3005 RMK A01 T00521014  RH  063%=      5-min Rain = 0
KEN1 161219Z 18007KT 05/M01 A3005 RMK A01 T00501013  RH  063%=      5-min Rain = 0
KEN1 161220Z 18007KT 05/M01 A3005 RMK A01 T00501012  RH  064%=      5-min Rain = 0
KEN1 161221Z 18007KT 05/M01 A3005 RMK A01 T00491012  RH  065%=      5-min Rain = 0
KEN1 161222Z 18007KT 05/M01 A3005 RMK A01 T00481012  RH  065%=      5-min Rain = 0
KEN1 161223Z 18007KT 05/M01 A3005 RMK A01 T00471012  RH  065%=      5-min Rain = 0
KEN1 161224Z 18008KT 05/M01 A3005 RMK A01 T00471012  RH  066%=      5-min Rain = 0
KEN1 161225Z 18008KT 05/M01 A3005 RMK A01 T00461012  RH  066%=      5-min Rain = 0
KEN1 161226Z 18007KT 05/M01 A3005 RMK A01 T00461012  RH  066%=      5-min Rain = 0
KEN1 161227Z 18007KT 05/M01 A3005 RMK A01 T00461012  RH  066%=      5-min Rain = 0
KEN1 161228Z 18006KT 05/M01 A3005 RMK A01 T00471012  RH  065%=      5-min Rain = 0
KEN1 161229Z 18006KT 05/M01 A3005 RMK A01 T00471013  RH  065%=      5-min Rain = 0
KEN1 161230Z 18006KT 05/M01 A3006 RMK A01 T00481013  RH  065%=      5-min Rain = 0
KEN1 161231Z 18007KT 05/M01 A3006 RMK A01 T00481012  RH  065%=      5-min Rain = 0
KEN1 161232Z 18007KT 05/M01 A3006 RMK A01 T00491013  RH  064%=      5-min Rain = 0
KEN1 161233Z 18008KT 05/M01 A3006 RMK A01 T00491013  RH  064%=      5-min Rain = 0
KEN1 161234Z 19008KT 05/M01 A3006 RMK A01 T00501012  RH  064%=      5-min Rain = 0
KEN1 161235Z 19008KT 05/M01 A3006 RMK A01 T00511012  RH  064%=      5-min Rain = 0
KEN1 161236Z 19008KT 05/M01 A3006 RMK A01 T00521012  RH  063%=      5-min Rain = 0
KEN1 161237Z 20008KT 05/M01 A3006 RMK A01 T00531012  RH  063%=      5-min Rain = 0
KEN1 161238Z 20008KT 05/M01 A3005 RMK A01 T00541012  RH  062%=      5-min Rain = 0
KEN1 161239Z 20008KT 06/M01 A3005 RMK A01 T00551012  RH  062%=      5-min Rain = 0
KEN1 161240Z 21008KT 06/M01 A3005 RMK A01 T00551012  RH  062%=      5-min Rain = 0
KEN1 161241Z 21008KT 06/M01 A3005 RMK A01 T00551012  RH  062%=      5-min Rain = 0
KEN1 161242Z 21008KT 06/M01 A3005 RMK A01 T00561012  RH  062%=      5-min Rain = 0
KEN1 161243Z 21008KT 06/M01 A3005 RMK A01 T00561012  RH  062%=      5-min Rain = 0
KEN1 161244Z 21007KT 06/M01 A3005 RMK A01 T00561012  RH  061%=      5-min Rain = 0
KEN1 161245Z 21007KT 06/M01 A3005 RMK A01 T00561012  RH  061%=      5-min Rain = 0
KEN1 161246Z 21007KT 06/M01 A3005 RMK A01 T00551013  RH  062%=      5-min Rain = 0
KEN1 161247Z 21007KT 05/M01 A3005 RMK A01 T00541013  RH  062%=      5-min Rain = 0
KEN1 161248Z 21007KT 05/M01 A3005 RMK A01 T00531013  RH  062%=      5-min Rain = 0
KEN1 161249Z 21006KT 05/M01 A3005 RMK A01 T00531013  RH  062%=      5-min Rain = 0
KEN1 161250Z 21006KT 05/M01 A3005 RMK A01 T00531013  RH  062%=      5-min Rain = 0
KEN1 161251Z 21006KT 05/M01 A3005 RMK A01 T00521014  RH  062%=      5-min Rain = 0
KEN1 161252Z 19005KT 05/M01 A3005 RMK A01 T00511014  RH  063%=      5-min Rain = 0
KEN1 161253Z 17004KT 05/M01 A3005 RMK A01 T00501014  RH  063%=      5-min Rain = 0
KEN1 161254Z 17004KT 05/M02 A3005 RMK A01 T00481015  RH  064%=      5-min Rain = 0
KEN1 161255Z 16004KT 05/M02 A3005 RMK A01 T00451015  RH  065%=      5-min Rain = 0
KEN1 161256Z 16004KT 04/M02 A3005 RMK A01 T00431015  RH  066%=      5-min Rain = 0
KEN1 161257Z 17004KT 04/M02 A3005 RMK A01 T00401016  RH  067%=      5-min Rain = 0
KEN1 161258Z 17004KT 04/M02 A3005 RMK A01 T00391015  RH  068%=      5-min Rain = 0
KEN1 161259Z 17005KT 04/M01 A3005 RMK A01 T00391014  RH  068%=      5-min Rain = 0
KEN1 161300Z 17006KT 04/M02 A3005 RMK A01 T00381015  RH  068%=      5-min Rain = 0
KEN1 161301Z 17006KT 04/M02 A3005 RMK A01 T00371016  RH  068%=      5-min Rain = 0
KEN1 161302Z 17007KT 04/M02 A3005 RMK A01 T00361015  RH  069%=      5-min Rain = 0
KEN1 161303Z 17008KT 04/M02 A3005 RMK A01 T00361015  RH  069%=      5-min Rain = 0
KEN1 161304Z 18008KT 04/M02 A3005 RMK A01 T00361016  RH  069%=      5-min Rain = 0
KEN1 161305Z 18008KT 04/M02 A3005 RMK A01 T00361015  RH  069%=      5-min Rain = 0
KEN1 161306Z 18009KT 04/M01 A3005 RMK A01 T00371014  RH  069%=      5-min Rain = 0
KEN1 161307Z 18009KT 04/M01 A3005 RMK A01 T00391013  RH  069%=      5-min Rain = 0
KEN1 161308Z 18010KT 04/M01 A3005 RMK A01 T00391013  RH  069%=      5-min Rain = 0
KEN1 161309Z 18010KT 04/M01 A3005 RMK A01 T00401013  RH  068%=      5-min Rain = 0
KEN1 161310Z 18009KT 04/M01 A3005 RMK A01 T00431012  RH  068%=      5-min Rain = 0
KEN1 161311Z 18009KT 04/M01 A3005 RMK A01 T00441011  RH  067%=      5-min Rain = 0
KEN1 161312Z 18009KT 05/M01 A3005 RMK A01 T00451011  RH  067%=      5-min Rain = 0
KEN1 161313Z 18009KT 05/M01 A3005 RMK A01 T00451012  RH  067%=      5-min Rain = 0
KEN1 161314Z 18009KT 04/M01 A3005 RMK A01 T00441012  RH  067%=      5-min Rain = 0
KEN1 161315Z 18009KT 04/M01 A3005 RMK A01 T00441011  RH  067%=      5-min Rain = 0
KEN1 161316Z 18008KT 04/M01 A3005 RMK A01 T00431012  RH  068%=      5-min Rain = 0
KEN1 161317Z 17008KT 04/M01 A3005 RMK A01 T00421011  RH  068%=      5-min Rain = 0
KEN1 161318Z 17007KT 04/M01 A3005 RMK A01 T00421011  RH  068%=      5-min Rain = 0
KEN1 161319Z 17006KT 04/M01 A3005 RMK A01 T00411011  RH  069%=      5-min Rain = 0
KEN1 161320Z 16007KT 04/M01 A3005 RMK A01 T00411011  RH  069%=      5-min Rain = 0
KEN1 161321Z 16006KT 04/M01 A3005 RMK A01 T00411011  RH  069%=      5-min Rain = 0
KEN1 161322Z 17006KT 04/M01 A3005 RMK A01 T00401011  RH  069%=      5-min Rain = 0
KEN1 161323Z 17006KT 04/M01 A3005 RMK A01 T00401011  RH  069%=      5-min Rain = 0
KEN1 161324Z 17007KT 04/M01 A3005 RMK A01 T00401011  RH  069%=      5-min Rain = 0
KEN1 161325Z 16006KT 04/M01 A3005 RMK A01 T00401011  RH  069%=      5-min Rain = 0
KEN1 161326Z 16006KT 04/M01 A3005 RMK A01 T00401011  RH  070%=      5-min Rain = 0
KEN1 161327Z 16007KT 04/M01 A3005 RMK A01 T00391011  RH  070%=      5-min Rain = 0
KEN1 161328Z 17008KT 04/M01 A3005 RMK A01 T00381011  RH  070%=      5-min Rain = 0
KEN1 161329Z 17008KT 04/M01 A3005 RMK A01 T00391011  RH  070%=      5-min Rain = 0
KEN1 161330Z 17008KT 04/M01 A3005 RMK A01 T00391011  RH  070%=      5-min Rain = 0
KEN1 161331Z 17008KT 04/M01 A3006 RMK A01 T00391011  RH  069%=      5-min Rain = 0
KEN1 161332Z 17008KT 04/M01 A3006 RMK A01 T00391012  RH  069%=      5-min Rain = 0
KEN1 161333Z 17007KT 04/M01 A3006 RMK A01 T00401012  RH  069%=      5-min Rain = 0
KEN1 161334Z 17007KT 04/M01 A3005 RMK A01 T00401012  RH  069%=      5-min Rain = 0
KEN1 161335Z 17007KT 04/M01 A3005 RMK A01 T00401012  RH  069%=      5-min Rain = 0
KEN1 161336Z 17007KT 04/M01 A3005 RMK A01 T00401012  RH  069%=      5-min Rain = 0
KEN1 161337Z 17007KT 04/M01 A3005 RMK A01 T00401012  RH  069%=      5-min Rain = 0
KEN1 161338Z 17007KT 04/M01 A3005 RMK A01 T00401012  RH  069%=      5-min Rain = 0
KEN1 161339Z 17008KT 04/M01 A3005 RMK A01 T00401011  RH  069%=      5-min Rain = 0
KEN1 161340Z 17008KT 04/M01 A3005 RMK A01 T00391012  RH  070%=      5-min Rain = 0
KEN1 161341Z 17008KT 04/M01 A3005 RMK A01 T00391012  RH  070%=      5-min Rain = 0
KEN1 161342Z 17008KT 04/M01 A3005 RMK A01 T00391011  RH  070%=      5-min Rain = 0
KEN1 161343Z 17008KT 04/M01 A3005 RMK A01 T00381011  RH  070%=      5-min Rain = 0
KEN1 161344Z 17007KT 04/M01 A3006 RMK A01 T00391011  RH  070%=      5-min Rain = 0
KEN1 161345Z 17007KT 04/M01 A3006 RMK A01 T00381011  RH  070%=      5-min Rain = 0
KEN1 161346Z 16007KT 04/M01 A3006 RMK A01 T00381012  RH  070%=      5-min Rain = 0
KEN1 161347Z 16006KT 04/M01 A3006 RMK A01 T00391011  RH  070%=      5-min Rain = 0
KEN1 161348Z 16006KT 04/M01 A3006 RMK A01 T00391011  RH  070%=      5-min Rain = 0
KEN1 161349Z 16007KT 04/M01 A3005 RMK A01 T00381011  RH  070%=      5-min Rain = 0
KEN1 161350Z 16007KT 04/M01 A3005 RMK A01 T00391011  RH  070%=      5-min Rain = 0
KEN1 161351Z 16007KT 04/M01 A3005 RMK A01 T00391011  RH  070%=      5-min Rain = 0
KEN1 161352Z 16007KT 04/M01 A3005 RMK A01 T00391011  RH  070%=      5-min Rain = 0
KEN1 161353Z 17007KT 04/M01 A3005 RMK A01 T00391011  RH  070%=      5-min Rain = 0
KEN1 161354Z 17007KT 04/M01 A3005 RMK A01 T00391011  RH  070%=      5-min Rain = 0
KEN1 161355Z 17007KT 04/M01 A3005 RMK A01 T00391011  RH  070%=      5-min Rain = 0
KEN1 161356Z 17006KT 04/M01 A3006 RMK A01 T00391011  RH  070%=      5-min Rain = 0
KEN1 161357Z 18006KT 04/M01 A3006 RMK A01 T00401011  RH  070%=      5-min Rain = 0
KEN1 161358Z 17006KT 04/M01 A3006 RMK A01 T00391011  RH  070%=      5-min Rain = 0
KEN1 161359Z 17006KT 04/M01 A3006 RMK A01 T00401011  RH  070%=      5-min Rain = 0
KEN1 161400Z 17006KT 04/M01 A3006 RMK A01 T00391011  RH  070%=      5-min Rain = 0
KEN1 161401Z 17006KT 04/M01 A3006 RMK A01 T00391011  RH  070%=      5-min Rain = 0
KEN1 161402Z 17006KT 04/M01 A3006 RMK A01 T00391011  RH  070%=      5-min Rain = 0
KEN1 161403Z 17006KT 04/M01 A3006 RMK A01 T00391011  RH  070%=      5-min Rain = 0
KEN1 161404Z 17007KT 04/M01 A3006 RMK A01 T00391011  RH  070%=      5-min Rain = 0
KEN1 161405Z 17007KT 04/M01 A3006 RMK A01 T00391011  RH  070%=      5-min Rain = 0
KEN1 161406Z 17007KT 04/M01 A3006 RMK A01 T00401010  RH  070%=      5-min Rain = 0
KEN1 161407Z 17007KT 04/M01 A3006 RMK A01 T00401010  RH  070%=      5-min Rain = 0
KEN1 161408Z 17006KT 04/M01 A3006 RMK A01 T00401010  RH  070%=      5-min Rain = 0
KEN1 161409Z 17006KT 04/M01 A3006 RMK A01 T00401010  RH  070%=      5-min Rain = 0
KEN1 161410Z 17005KT 04/M01 A3006 RMK A01 T00401010  RH  070%=      5-min Rain = 0
KEN1 161411Z 16006KT 04/M01 A3006 RMK A01 T00401010  RH  070%=      5-min Rain = 0
KEN1 161412Z 16006KT 04/M01 A3006 RMK A01 T00401010  RH  070%=      5-min Rain = 0
KEN1 161413Z 17006KT 04/M01 A3006 RMK A01 T00401010  RH  070%=      5-min Rain = 0
KEN1 161414Z 17006KT 04/M01 A3006 RMK A01 T00401010  RH  070%=      5-min Rain = 0
KEN1 161415Z 17006KT 04/M01 A3006 RMK A01 T00401010  RH  070%=      5-min Rain = 0
KEN1 161416Z 17007KT 04/M01 A3006 RMK A01 T00401010  RH  070%=      5-min Rain = 0
KEN1 161417Z 17007KT 04/M01 A3006 RMK A01 T00401010  RH  070%=      5-min Rain = 0
KEN1 161418Z 17007KT 04/M01 A3006 RMK A01 T00401010  RH  070%=      5-min Rain = 0
KEN1 161419Z 17007KT 04/M01 A3006 RMK A01 T00401010  RH  070%=      5-min Rain = 0
KEN1 161420Z 17007KT 04/M01 A3006 RMK A01 T00411010  RH  069%=      5-min Rain = 0
KEN1 161421Z 17007KT 04/M01 A3006 RMK A01 T00411010  RH  069%=      5-min Rain = 0
KEN1 161422Z 17007KT 04/M01 A3006 RMK A01 T00421010  RH  069%=      5-min Rain = 0
KEN1 161423Z 18007KT 04/M01 A3006 RMK A01 T00421010  RH  069%=      5-min Rain = 0
KEN1 161424Z 18007KT 04/M01 A3006 RMK A01 T00421010  RH  069%=      5-min Rain = 0
KEN1 161425Z 18007KT 04/M01 A3006 RMK A01 T00431010  RH  068%=      5-min Rain = 0
KEN1 161426Z 18007KT 04/M01 A3006 RMK A01 T00431010  RH  068%=      5-min Rain = 0
KEN1 161427Z 18007KT 04/M01 A3006 RMK A01 T00441010  RH  068%=      5-min Rain = 0
KEN1 161428Z 18007KT 04/M01 A3006 RMK A01 T00441010  RH  068%=      5-min Rain = 0
KEN1 161429Z 18007KT 04/M01 A3006 RMK A01 T00441010  RH  068%=      5-min Rain = 0
KEN1 161430Z 18007KT 04/M01 A3006 RMK A01 T00441010  RH  068%=      5-min Rain = 0
KEN1 161431Z 18007KT 04/M01 A3006 RMK A01 T00441010  RH  068%=      5-min Rain = 0
KEN1 161432Z 18007KT 04/M01 A3006 RMK A01 T00441010  RH  068%=      5-min Rain = 0
KEN1 161433Z 18007KT 05/M01 A3006 RMK A01 T00451010  RH  068%=      5-min Rain = 0
KEN1 161434Z 18006KT 05/M01 A3006 RMK A01 T00461009  RH  067%=      5-min Rain = 0
KEN1 161435Z 18006KT 05/M01 A3006 RMK A01 T00471009  RH  067%=      5-min Rain = 0
KEN1 161436Z 18006KT 05/M01 A3006 RMK A01 T00471009  RH  067%=      5-min Rain = 0
KEN1 161437Z 18007KT 05/M01 A3006 RMK A01 T00471009  RH  067%=      5-min Rain = 0
KEN1 161438Z 18007KT 05/M01 A3006 RMK A01 T00471010  RH  067%=      5-min Rain = 0
KEN1 161439Z 19008KT 05/M01 A3006 RMK A01 T00471010  RH  066%=      5-min Rain = 0
KEN1 161440Z 19008KT 05/M01 A3006 RMK A01 T00481010  RH  066%=      5-min Rain = 0
KEN1 161441Z 19008KT 05/M01 A3006 RMK A01 T00501010  RH  065%=      5-min Rain = 0
KEN1 161442Z 19008KT 05/M01 A3006 RMK A01 T00511010  RH  065%=      5-min Rain = 0
KEN1 161443Z 19009KT 05/M01 A3006 RMK A01 T00521010  RH  064%=      5-min Rain = 0
KEN1 161444Z 20009KT 05/M01 A3006 RMK A01 T00531010  RH  064%=      5-min Rain = 0
KEN1 161445Z 20009KT 05/M01 A3006 RMK A01 T00541009  RH  064%=      5-min Rain = 0
KEN1 161446Z 20009KT 05/M01 A3006 RMK A01 T00541010  RH  063%=      5-min Rain = 0
KEN1 161447Z 20008KT 06/M01 A3006 RMK A01 T00551010  RH  063%=      5-min Rain = 0
KEN1 161448Z 20007KT 06/M01 A3006 RMK A01 T00551009  RH  063%=      5-min Rain = 0
KEN1 161449Z 20007KT 06/M01 A3006 RMK A01 T00551009  RH  063%=      5-min Rain = 0
KEN1 161450Z 20007KT 06/M01 A3006 RMK A01 T00551009  RH  063%=      5-min Rain = 0
KEN1 161451Z 20007KT 06/M01 A3006 RMK A01 T00551009  RH  063%=      5-min Rain = 0
KEN1 161452Z 20008KT 06/M01 A3006 RMK A01 T00551009  RH  063%=      5-min Rain = 0
KEN1 161453Z 20007KT 06/M01 A3006 RMK A01 T00551009  RH  063%=      5-min Rain = 0
KEN1 161454Z 20007KT 06/M01 A3006 RMK A01 T00551009  RH  063%=      5-min Rain = 0
KEN1 161455Z 20007KT 06/M01 A3006 RMK A01 T00551009  RH  063%=      5-min Rain = 0
KEN1 161456Z 20007KT 06/M01 A3006 RMK A01 T00561008  RH  063%=      5-min Rain = 0
KEN1 161457Z 20007KT 06/M01 A3006 RMK A01 T00561008  RH  063%=      5-min Rain = 0
KEN1 161458Z 19006KT 06/M01 A3006 RMK A01 T00561008  RH  063%=      5-min Rain = 0
KEN1 161459Z 19006KT 06/M01 A3005 RMK A01 T00561008  RH  063%=      5-min Rain = 0
KEN1 161500Z 19006KT 06/M01 A3005 RMK A01 T00571007  RH  063%=      5-min Rain = 0
KEN1 161501Z 19006KT 06/M01 A3005 RMK A01 T00561007  RH  064%=      5-min Rain = 0
KEN1 161502Z 19006KT 06/M01 A3005 RMK A01 T00571007  RH  064%=      5-min Rain = 0
KEN1 161503Z 19006KT 06/M01 A3005 RMK A01 T00571006  RH  064%=      5-min Rain = 0
KEN1 161504Z 19006KT 06/M01 A3005 RMK A01 T00571007  RH  064%=      5-min Rain = 0
KEN1 161505Z 18006KT 06/M01 A3006 RMK A01 T00571006  RH  064%=      5-min Rain = 0
KEN1 161506Z 19006KT 06/M01 A3006 RMK A01 T00571006  RH  064%=      5-min Rain = 0
KEN1 161507Z 19006KT 06/M01 A3006 RMK A01 T00581006  RH  064%=      5-min Rain = 0
KEN1 161508Z 19006KT 06/M01 A3006 RMK A01 T00581006  RH  063%=      5-min Rain = 0
KEN1 161509Z 19006KT 06/M01 A3005 RMK A01 T00581006  RH  063%=      5-min Rain = 0
KEN1 161510Z 19006KT 06/M01 A3005 RMK A01 T00591006  RH  063%=      5-min Rain = 0
KEN1 161511Z 19006KT 06/M01 A3005 RMK A01 T00601005  RH  063%=      5-min Rain = 0
KEN1 161512Z 19006KT 06/M01 A3006 RMK A01 T00601006  RH  063%=      5-min Rain = 0
KEN1 161513Z 19006KT 06/M01 A3006 RMK A01 T00611005  RH  062%=      5-min Rain = 0
KEN1 161514Z 19006KT 06/M01 A3006 RMK A01 T00621005  RH  062%=      5-min Rain = 0
KEN1 161515Z 19006KT 06/M01 A3006 RMK A01 T00631005  RH  062%=      5-min Rain = 0
KEN1 161516Z 19006KT 06/M01 A3006 RMK A01 T00641005  RH  061%=      5-min Rain = 0
KEN1 161517Z 19006KT 07/M00 A3006 RMK A01 T00651004  RH  061%=      5-min Rain = 0
KEN1 161518Z 19006KT 07/M00 A3006 RMK A01 T00661004  RH  061%=      5-min Rain = 0
KEN1 161519Z 19006KT 07/M01 A3005 RMK A01 T00671005  RH  060%=      5-min Rain = 0
KEN1 161520Z 19006KT 07/M00 A3005 RMK A01 T00691004  RH  060%=      5-min Rain = 0
KEN1 161521Z 19005KT 07/M00 A3005 RMK A01 T00701003  RH  060%=      5-min Rain = 0
KEN1 161522Z 19005KT 07/M00 A3005 RMK A01 T00721003  RH  059%=      5-min Rain = 0
KEN1 161523Z 20006KT 07/M00 A3005 RMK A01 T00731003  RH  059%=      5-min Rain = 0
KEN1 161524Z 20006KT 07/M00 A3005 RMK A01 T00741003  RH  058%=      5-min Rain = 0
KEN1 161525Z 20006KT 08/M00 A3005 RMK A01 T00751003  RH  058%=      5-min Rain = 0
KEN1 161526Z 19006KT 08/M00 A3005 RMK A01 T00751003  RH  058%=      5-min Rain = 0
KEN1 161527Z 19006KT 08/M00 A3005 RMK A01 T00761003  RH  058%=      5-min Rain = 0
KEN1 161528Z 20006KT 08/M00 A3006 RMK A01 T00771002  RH  057%=      5-min Rain = 0
KEN1 161529Z 20006KT 08/M00 A3006 RMK A01 T00781002  RH  057%=      5-min Rain = 0
KEN1 161530Z 20006KT 08/M00 A3006 RMK A01 T00781002  RH  057%=      5-min Rain = 0
KEN1 161531Z 20006KT 08/M00 A3006 RMK A01 T00791003  RH  056%=      5-min Rain = 0
KEN1 161532Z 20005KT 08/M00 A3006 RMK A01 T00801004  RH  056%=      5-min Rain = 0
KEN1 161533Z 21005KT 08/M00 A3006 RMK A01 T00811004  RH  055%=      5-min Rain = 0
KEN1 161534Z 21005KT 08/M00 A3006 RMK A01 T00821004  RH  055%=      5-min Rain = 0
KEN1 161535Z 21005KT 08/M00 A3006 RMK A01 T00831004  RH  054%=      5-min Rain = 0
KEN1 161536Z 21004KT 09/M00 A3005 RMK A01 T00851003  RH  054%=      5-min Rain = 0
KEN1 161537Z 21004KT 09/M00 A3005 RMK A01 T00871003  RH  053%=      5-min Rain = 0
KEN1 161538Z 21005KT 09/M00 A3005 RMK A01 T00881003  RH  053%=      5-min Rain = 0
KEN1 161539Z 20005KT 09/M00 A3005 RMK A01 T00901004  RH  052%=      5-min Rain = 0
KEN1 161540Z 20005KT 09/M00 A3005 RMK A01 T00911003  RH  052%=      5-min Rain = 0
KEN1 161541Z 20006KT 09/M00 A3005 RMK A01 T00931003  RH  051%=      5-min Rain = 0
KEN1 161542Z 20006KT 10/M00 A3005 RMK A01 T00951004  RH  050%=      5-min Rain = 0
KEN1 161543Z 20007KT 10/M01 A3005 RMK A01 T00971005  RH  049%=      5-min Rain = 0
KEN1 161544Z 20007KT 10/M01 A3005 RMK A01 T00981008  RH  048%=      5-min Rain = 0
KEN1 161545Z 20007KT 10/M01 A3005 RMK A01 T01001007  RH  047%=      5-min Rain = 0
KEN1 161546Z 20008KT 10/M01 A3005 RMK A01 T01031007  RH  047%=      5-min Rain = 0
KEN1 161547Z 20007KT 10/M01 A3005 RMK A01 T01041009  RH  045%=      5-min Rain = 0
KEN1 161548Z 20007KT 11/M01 A3005 RMK A01 T01061009  RH  045%=      5-min Rain = 0
KEN1 161549Z 19006KT 11/M01 A3005 RMK A01 T01081012  RH  043%=      5-min Rain = 0
KEN1 161550Z 20006KT 11/M01 A3005 RMK A01 T01111009  RH  043%=      5-min Rain = 0
KEN1 161551Z 20008KT 12/M01 A3005 RMK A01 T01151010  RH  042%=      5-min Rain = 0
KEN1 161552Z 20007KT 12/M01 A3005 RMK A01 T01161014  RH  040%=      5-min Rain = 0
KEN1 161553Z 21007KT 12/M02 A3005 RMK A01 T01161015  RH  040%=      5-min Rain = 0
KEN1 161554Z 21006KT 12/M01 A3005 RMK A01 T01171013  RH  041%=      5-min Rain = 0
KEN1 161555Z 20006KT 12/M01 A3005 RMK A01 T01191012  RH  040%=      5-min Rain = 0
KEN1 161556Z 21006KT 12/M01 A3005 RMK A01 T01191014  RH  040%=      5-min Rain = 0
KEN1 161557Z 21006KT 12/M01 A3005 RMK A01 T01201012  RH  040%=      5-min Rain = 0
KEN1 161558Z 21005KT 12/M01 A3005 RMK A01 T01221013  RH  039%=      5-min Rain = 0
KEN1 161559Z 21004KT 12/M01 A3005 RMK A01 T01231012  RH  039%=      5-min Rain = 0
KEN1 161600Z 22006KT 13/M02 A3005 RMK A01 T01251015  RH  038%=      5-min Rain = 0
KEN1 161601Z 24006KT 12/M02 A3005 RMK A01 T01241022  RH  036%=      5-min Rain = 0
KEN1 161602Z 23006KT 12/M02 A3005 RMK A01 T01241018  RH  037%=      5-min Rain = 0
KEN1 161603Z 22006KT 13/M02 A3005 RMK A01 T01251016  RH  037%=      5-min Rain = 0
KEN1 161604Z 23006KT 13/M02 A3005 RMK A01 T01261018  RH  037%=      5-min Rain = 0
KEN1 161605Z 24006KT 13/M02 A3005 RMK A01 T01261015  RH  037%=      5-min Rain = 0
KEN1 161606Z 24006KT 13/M02 A3005 RMK A01 T01281017  RH  037%=      5-min Rain = 0
KEN1 161607Z 25008KT 13/M02 A3005 RMK A01 T01281018  RH  036%=      5-min Rain = 0
KEN1 161608Z 24008KT 13/M02 A3005 RMK A01 T01271020  RH  036%=      5-min Rain = 0
KEN1 161609Z 24007KT 13/M02 A3005 RMK A01 T01261020  RH  036%=      5-min Rain = 0
KEN1 161610Z 23006KT 13/M02 A3005 RMK A01 T01261019  RH  036%=      5-min Rain = 0
KEN1 161611Z 23006KT 13/M02 A3005 RMK A01 T01261020  RH  036%=      5-min Rain = 0
KEN1 161612Z 25006KT 13/M02 A3005 RMK A01 T01271019  RH  036%=      5-min Rain = 0
KEN1 161613Z 24006KT 13/M02 A3005 RMK A01 T01271020  RH  036%=      5-min Rain = 0
KEN1 161614Z 22005KT 13/M02 A3005 RMK A01 T01271020  RH  036%=      5-min Rain = 0
KEN1 161615Z 24005KT 13/M02 A3005 RMK A01 T01271020  RH  036%=      5-min Rain = 0
KEN1 161616Z 23004KT 13/M02 A3005 RMK A01 T01271019  RH  036%=      5-min Rain = 0
KEN1 161617Z 23004KT 13/M02 A3005 RMK A01 T01281018  RH  036%=      5-min Rain = 0
KEN1 161618Z 22005KT 13/M02 A3005 RMK A01 T01301018  RH  036%=      5-min Rain = 0
KEN1 161619Z 23004KT 13/M02 A3005 RMK A01 T01321018  RH  035%=      5-min Rain = 0
KEN1 161620Z 22006KT 13/M02 A3005 RMK A01 T01331019  RH  035%=      5-min Rain = 0
KEN1 161621Z 22007KT 13/M02 A3005 RMK A01 T01331021  RH  034%=      5-min Rain = 0
KEN1 161622Z 22006KT 13/M02 A3005 RMK A01 T01331024  RH  034%=      5-min Rain = 0
KEN1 161623Z 24005KT 13/M02 A3005 RMK A01 T01341023  RH  034%=      5-min Rain = 0
KEN1 161624Z 25006KT 14/M02 A3005 RMK A01 T01361022  RH  033%=      5-min Rain = 0
KEN1 161625Z 26006KT 14/M02 A3005 RMK A01 T01391022  RH  033%=      5-min Rain = 0
KEN1 161626Z 25006KT 14/M02 A3005 RMK A01 T01401024  RH  032%=      5-min Rain = 0
KEN1 161627Z 26005KT 14/M03 A3005 RMK A01 T01391026  RH  032%=      5-min Rain = 0
KEN1 161628Z 27006KT 14/M02 A3005 RMK A01 T01401022  RH  033%=      5-min Rain = 0
KEN1 161629Z 25006KT 14/M02 A3005 RMK A01 T01421024  RH  032%=      5-min Rain = 0
KEN1 161630Z 26005KT 14/M03 A3005 RMK A01 T01431025  RH  031%=      5-min Rain = 0
KEN1 161631Z 23007KT 14/M02 A3005 RMK A01 T01421024  RH  032%=      5-min Rain = 0
KEN1 161632Z 24007KT 14/M03 A3005 RMK A01 T01441025  RH  031%=      5-min Rain = 0
KEN1 161633Z 23008KT 15/M03 A3005 RMK A01 T01461027  RH  030%=      5-min Rain = 0
KEN1 161634Z 23008KT 15/M03 A3005 RMK A01 T01461026  RH  030%=      5-min Rain = 0
KEN1 161635Z 23007KT 15/M03 A3004 RMK A01 T01471027  RH  030%=      5-min Rain = 0
KEN1 161636Z 22007KT 15/M03 A3004 RMK A01 T01471026  RH  030%=      5-min Rain = 0
KEN1 161637Z 23007KT 15/M03 A3004 RMK A01 T01481026  RH  030%=      5-min Rain = 0
KEN1 161638Z 22007KT 15/M03 A3004 RMK A01 T01481025  RH  030%=      5-min Rain = 0
KEN1 161639Z 22007KT 15/M02 A3004 RMK A01 T01491024  RH  030%=      5-min Rain = 0
KEN1 161640Z 22007KT 15/M02 A3004 RMK A01 T01501024  RH  030%=      5-min Rain = 0
KEN1 161641Z 21007KT 15/M03 A3004 RMK A01 T01501025  RH  030%=      5-min Rain = 0
KEN1 161642Z 21007KT 15/M03 A3004 RMK A01 T01501026  RH  030%=      5-min Rain = 0
KEN1 161643Z 22008KT 15/M02 A3004 RMK A01 T01521023  RH  030%=      5-min Rain = 0
KEN1 161644Z 23008KT 15/M02 A3004 RMK A01 T01531024  RH  029%=      5-min Rain = 0
KEN1 161645Z 23006KT 15/M03 A3004 RMK A01 T01531025  RH  029%=      5-min Rain = 0
KEN1 161646Z 23008KT 15/M02 A3004 RMK A01 T01541023  RH  030%=      5-min Rain = 0
KEN1 161647Z 22008KT 16/M02 A3004 RMK A01 T01551024  RH  029%=      5-min Rain = 0
KEN1 161648Z 24008KT 16/M02 A3004 RMK A01 T01551024  RH  029%=      5-min Rain = 0
KEN1 161649Z 24006KT 16/M02 A3004 RMK A01 T01551022  RH  029%=      5-min Rain = 0
KEN1 161650Z 23007KT 15/M03 A3004 RMK A01 T01531025  RH  029%=      5-min Rain = 0
KEN1 161651Z 23007KT 15/M03 A3004 RMK A01 T01531028  RH  029%=      5-min Rain = 0
KEN1 161652Z 23007KT 15/M03 A3004 RMK A01 T01541028  RH  029%=      5-min Rain = 0
KEN1 161653Z 23009KT 16/M03 A3004 RMK A01 T01551027  RH  029%=      5-min Rain = 0
KEN1 161654Z 23009KT 16/M03 A3004 RMK A01 T01581027  RH  028%=      5-min Rain = 0
KEN1 161655Z 22007KT 16/M03 A3004 RMK A01 T01581031  RH  027%=      5-min Rain = 0
KEN1 161656Z 24006KT 16/M03 A3004 RMK A01 T01571032  RH  027%=      5-min Rain = 0
KEN1 161657Z 22006KT 16/M03 A3004 RMK A01 T01571028  RH  028%=      5-min Rain = 0
KEN1 161658Z 21010KT 16/M03 A3004 RMK A01 T01591028  RH  028%=      5-min Rain = 0
KEN1 161659Z 22010KT 16/M03 A3004 RMK A01 T01591030  RH  027%=      5-min Rain = 0
KEN1 161700Z 23008KT 16/M03 A3004 RMK A01 T01581032  RH  027%=      5-min Rain = 0
KEN1 161701Z 22006KT 16/M03 A3004 RMK A01 T01581034  RH  026%=      5-min Rain = 0
KEN1 161702Z 22006KT 16/M03 A3004 RMK A01 T01591033  RH  027%=      5-min Rain = 0
KEN1 161703Z 23007KT 16/M03 A3004 RMK A01 T01601032  RH  027%=      5-min Rain = 0
KEN1 161704Z 21005KT 16/M03 A3004 RMK A01 T01601031  RH  027%=      5-min Rain = 0
KEN1 161705Z 20004KT 16/M03 A3004 RMK A01 T01601031  RH  027%=      5-min Rain = 0
KEN1 161706Z 21005KT 16/M03 A3004 RMK A01 T01591033  RH  027%=      5-min Rain = 0
KEN1 161707Z 22007KT 16/M03 A3004 RMK A01 T01591031  RH  027%=      5-min Rain = 0
KEN1 161708Z 22006KT 16/M03 A3004 RMK A01 T01601030  RH  027%=      5-min Rain = 0
KEN1 161709Z 21006KT 16/M03 A3003 RMK A01 T01621031  RH  026%=      5-min Rain = 0
KEN1 161710Z 20006KT 16/M03 A3003 RMK A01 T01631029  RH  027%=      5-min Rain = 0
KEN1 161711Z 21007KT 16/M03 A3003 RMK A01 T01631029  RH  027%=      5-min Rain = 0
KEN1 161712Z 23006KT 16/M03 A3003 RMK A01 T01631029  RH  027%=      5-min Rain = 0
KEN1 161713Z 22006KT 16/M03 A3003 RMK A01 T01631029  RH  027%=      5-min Rain = 0
KEN1 161714Z 21007KT 17/M03 A3003 RMK A01 T01651028  RH  027%=      5-min Rain = 0
KEN1 161715Z 21006KT 17/M03 A3003 RMK A01 T01661027  RH  026%=      5-min Rain = 0
KEN1 161716Z 20005KT 17/M03 A3003 RMK A01 T01661026  RH  027%=      5-min Rain = 0
KEN1 161717Z 22003KT 17/M03 A3003 RMK A01 T01651029  RH  026%=      5-min Rain = 0
KEN1 161718Z 21003KT 16/M03 A3003 RMK A01 T01641029  RH  026%=      5-min Rain = 0
KEN1 161719Z 23006KT 16/M03 A3003 RMK A01 T01641029  RH  027%=      5-min Rain = 0
KEN1 161720Z 24006KT 17/M03 A3003 RMK A01 T01651031  RH  026%=      5-min Rain = 0
KEN1 161721Z 23005KT 17/M03 A3003 RMK A01 T01651031  RH  026%=      5-min Rain = 0
KEN1 161722Z 21006KT 17/M03 A3003 RMK A01 T01661028  RH  026%=      5-min Rain = 0
KEN1 161723Z 22007KT 17/M03 A3003 RMK A01 T01691026  RH  026%=      5-min Rain = 0
KEN1 161724Z 22006KT 17/M03 A3003 RMK A01 T01691031  RH  025%=      5-min Rain = 0
KEN1 161725Z 25007KT 17/M03 A3003 RMK A01 T01721032  RH  025%=      5-min Rain = 0
KEN1 161726Z 23007KT 17/M04 A3003 RMK A01 T01741037  RH  023%=      5-min Rain = 0
KEN1 161727Z 26006KT 17/M04 A3003 RMK A01 T01741036  RH  024%=      5-min Rain = 0
KEN1 161728Z 26008KT 18/M04 A3003 RMK A01 T01761035  RH  023%=      5-min Rain = 0
KEN1 161729Z 26006KT 18/M04 A3003 RMK A01 T01761042  RH  022%=      5-min Rain = 0
KEN1 161730Z 26008KT 18/M04 A3003 RMK A01 T01751039  RH  023%=      5-min Rain = 0
KEN1 161731Z 26008KT 18/M04 A3003 RMK A01 T01751041  RH  023%=      5-min Rain = 0
KEN1 161732Z 25009KT 18/M04 A3003 RMK A01 T01751040  RH  023%=      5-min Rain = 0
KEN1 161733Z 23006KT 17/M04 A3003 RMK A01 T01741040  RH  023%=      5-min Rain = 0
KEN1 161734Z 23006KT 17/M04 A3003 RMK A01 T01731040  RH  023%=      5-min Rain = 0
KEN1 161735Z 21008KT 17/M04 A3003 RMK A01 T01741040  RH  023%=      5-min Rain = 0
KEN1 161736Z 22007KT 17/M04 A3003 RMK A01 T01741038  RH  023%=      5-min Rain = 0
KEN1 161737Z 24007KT 18/M04 A3003 RMK A01 T01771036  RH  023%=      5-min Rain = 0
KEN1 161738Z 25005KT 18/M04 A3003 RMK A01 T01781038  RH  023%=      5-min Rain = 0
KEN1 161739Z 24007KT 18/M04 A3002 RMK A01 T01791039  RH  022%=      5-min Rain = 0
KEN1 161740Z 22008KT 18/M04 A3002 RMK A01 T01791038  RH  023%=      5-min Rain = 0
KEN1 161741Z 22007KT 18/M04 A3002 RMK A01 T01791039  RH  022%=      5-min Rain = 0
KEN1 161742Z 21006KT 18/M04 A3002 RMK A01 T01791040  RH  022%=      5-min Rain = 0
KEN1 161743Z 23006KT 18/M04 A3002 RMK A01 T01791038  RH  023%=      5-min Rain = 0
KEN1 161744Z 25008KT 18/M04 A3002 RMK A01 T01791039  RH  022%=      5-min Rain = 0
KEN1 161745Z 24007KT 18/M04 A3002 RMK A01 T01791040  RH  022%=      5-min Rain = 0
KEN1 161746Z 23005KT 18/M04 A3002 RMK A01 T01801039  RH  022%=      5-min Rain = 0
KEN1 161747Z 24006KT 18/M04 A3002 RMK A01 T01811038  RH  022%=      5-min Rain = 0
KEN1 161748Z 26007KT 18/M04 A3002 RMK A01 T01821040  RH  022%=      5-min Rain = 0
KEN1 161749Z 25007KT 18/M04 A3002 RMK A01 T01831038  RH  022%=      5-min Rain = 0
KEN1 161750Z 24008KT 18/M04 A3002 RMK A01 T01841038  RH  022%=      5-min Rain = 0
KEN1 161751Z 23008KT 19/M04 A3002 RMK A01 T01851039  RH  022%=      5-min Rain = 0
KEN1 161752Z 22009KT 19/M04 A3002 RMK A01 T01861037  RH  022%=      5-min Rain = 0
KEN1 161753Z 22008KT 19/M04 A3002 RMK A01 T01881039  RH  021%=      5-min Rain = 0
KEN1 161754Z 22007KT 19/M04 A3002 RMK A01 T01861039  RH  021%=      5-min Rain = 0
KEN1 161755Z 22007KT 19/M04 A3002 RMK A01 T01871037  RH  022%=      5-min Rain = 0
KEN1 161756Z 24008KT 19/M04 A3002 RMK A01 T01881038  RH  021%=      5-min Rain = 0
KEN1 161757Z 25007KT 19/M04 A3002 RMK A01 T01891038  RH  021%=      5-min Rain = 0
KEN1 161758Z 23006KT 19/M04 A3001 RMK A01 T01901039  RH  021%=      5-min Rain = 0
KEN1 161759Z 21007KT 19/M04 A3001 RMK A01 T01901038  RH  021%=      5-min Rain = 0
KEN1 161800Z 22008KT 19/M04 A3001 RMK A01 T01901038  RH  021%=      5-min Rain = 0
KEN1 161801Z 22005KT 19/M04 A3001 RMK A01 T01871039  RH  021%=      5-min Rain = 0
KEN1 161802Z 23004KT 19/M04 A3001 RMK A01 T01881035  RH  022%=      5-min Rain = 0
KEN1 161803Z 21005KT 19/M04 A3001 RMK A01 T01901035  RH  022%=      5-min Rain = 0
KEN1 161804Z 22006KT 19/M03 A3001 RMK A01 T01911034  RH  022%=      5-min Rain = 0
KEN1 161805Z 21006KT 19/M04 A3001 RMK A01 T01921037  RH  021%=      5-min Rain = 0
KEN1 161806Z 24007KT 19/M04 A3001 RMK A01 T01931038  RH  021%=      5-min Rain = 0
KEN1 161807Z 26007KT 19/M04 A3001 RMK A01 T01931041  RH  020%=      5-min Rain = 0
KEN1 161808Z 25005KT 19/M04 A3001 RMK A01 T01911044  RH  020%=      5-min Rain = 0
KEN1 161809Z 25006KT 19/M04 A3001 RMK A01 T01901040  RH  021%=      5-min Rain = 0
KEN1 161810Z 25006KT 19/M04 A3001 RMK A01 T01921039  RH  021%=      5-min Rain = 0
KEN1 161811Z 22007KT 19/M03 A3001 RMK A01 T01931033  RH  021%=      5-min Rain = 0
KEN1 161812Z 21005KT 19/M03 A3001 RMK A01 T01931033  RH  022%=      5-min Rain = 0
KEN1 161813Z 22005KT 19/M03 A3001 RMK A01 T01921033  RH  022%=      5-min Rain = 0
KEN1 161814Z 24006KT 19/M03 A30 RMK A01 T01911032  RH  022%=      5-min Rain = 0
KEN1 161815Z 25007KT 19/M04 A30 RMK A01 T01921038  RH  021%=      5-min Rain = 0
KEN1 161816Z 25005KT 19/M04 A30 RMK A01 T01921041  RH  020%=      5-min Rain = 0
KEN1 161817Z 26006KT 19/M04 A30 RMK A01 T01921039  RH  021%=      5-min Rain = 0
KEN1 161818Z 25007KT 19/M04 A30 RMK A01 T01941037  RH  021%=      5-min Rain = 0
KEN1 161819Z 25005KT 19/M04 A30 RMK A01 T01941040  RH  020%=      5-min Rain = 0
KEN1 161820Z 27006KT 19/M04 A30 RMK A01 T01931040  RH  020%=      5-min Rain = 0
KEN1 161821Z 27007KT 19/M04 A30 RMK A01 T01931039  RH  020%=      5-min Rain = 0
KEN1 161822Z 24005KT 19/M04 A30 RMK A01 T01941038  RH  021%=      5-min Rain = 0
KEN1 161823Z 24006KT 19/M04 A30 RMK A01 T01941037  RH  021%=      5-min Rain = 0
KEN1 161824Z 23008KT 20/M04 A30 RMK A01 T01951036  RH  021%=      5-min Rain = 0
KEN1 161825Z 24005KT 20/M04 A2999 RMK A01 T01951038  RH  020%=      5-min Rain = 0
KEN1 161826Z 22006KT 20/M04 A2999 RMK A01 T01971035  RH  021%=      5-min Rain = 0
KEN1 161827Z 23005KT 20/M04 A2999 RMK A01 T01981038  RH  020%=      5-min Rain = 0
KEN1 161828Z 26007KT 20/M04 A2999 RMK A01 T01981039  RH  020%=      5-min Rain = 0
KEN1 161829Z 25005KT 20/M04 A2999 RMK A01 T01971040  RH  020%=      5-min Rain = 0
KEN1 161830Z 23005KT 20/M04 A2999 RMK A01 T01971038  RH  020%=      5-min Rain = 0
KEN1 161831Z 27005KT 20/M04 A2999 RMK A01 T01981038  RH  020%=      5-min Rain = 0
KEN1 161832Z 28007KT 20/M04 A2999 RMK A01 T01991038  RH  020%=      5-min Rain = 0
KEN1 161833Z 27006KT 20/M04 A2999 RMK A01 T02001038  RH  020%=      5-min Rain = 0
KEN1 161834Z 26007KT 20/M04 A2999 RMK A01 T02011037  RH  020%=      5-min Rain = 0
KEN1 161835Z 26006KT 20/M04 A2999 RMK A01 T02011042  RH  019%=      5-min Rain = 0
KEN1 161836Z 27006KT 20/M04 A2999 RMK A01 T02001042  RH  019%=      5-min Rain = 0
KEN1 161837Z 26007KT 20/M04 A2999 RMK A01 T02001040  RH  020%=      5-min Rain = 0
KEN1 161838Z 25006KT 20/M04 A2999 RMK A01 T02001040  RH  020%=      5-min Rain = 0
KEN1 161839Z 26005KT 20/M04 A2999 RMK A01 T02001039  RH  020%=      5-min Rain = 0
KEN1 161840Z 26004KT 20/M04 A2999 RMK A01 T02001039  RH  020%=      5-min Rain = 0
KEN1 161841Z 27006KT 20/M04 A2999 RMK A01 T02001039  RH  020%=      5-min Rain = 0
KEN1 161842Z 28007KT 20/M04 A2999 RMK A01 T02011038  RH  020%=      5-min Rain = 0
KEN1 161843Z 28008KT 20/M04 A2999 RMK A01 T02021038  RH  019%=      5-min Rain = 0
KEN1 161844Z 27006KT 20/M04 A2999 RMK A01 T02031039  RH  019%=      5-min Rain = 0
KEN1 161845Z 27006KT 20/M04 A2998 RMK A01 T02041039  RH  019%=      5-min Rain = 0
KEN1 161846Z 27004KT 20/M04 A2998 RMK A01 T02041043  RH  019%=      5-min Rain = 0
KEN1 161847Z 28003KT 20/M04 A2998 RMK A01 T02021044  RH  019%=      5-min Rain = 0
KEN1 161848Z 28006KT 20/M04 A2998 RMK A01 T02021043  RH  019%=      5-min Rain = 0
KEN1 161849Z 26007KT 20/M04 A2998 RMK A01 T02021044  RH  019%=      5-min Rain = 0
KEN1 161850Z 25006KT 20/M05 A2998 RMK A01 T02031045  RH  019%=      5-min Rain = 0
KEN1 161851Z 24005KT 20/M04 A2998 RMK A01 T02041042  RH  019%=      5-min Rain = 0
KEN1 161852Z 24004KT 21/M04 A2998 RMK A01 T02051042  RH  019%=      5-min Rain = 0
KEN1 161853Z 25005KT 21/M04 A2998 RMK A01 T02061041  RH  019%=      5-min Rain = 0
KEN1 161854Z 28004KT 21/M04 A2998 RMK A01 T02061041  RH  019%=      5-min Rain = 0
KEN1 161855Z 28007KT 21/M04 A2998 RMK A01 T02061038  RH  019%=      5-min Rain = 0
KEN1 161856Z 27006KT 21/M04 A2998 RMK A01 T02061040  RH  019%=      5-min Rain = 0
KEN1 161857Z 29005KT 21/M04 A2998 RMK A01 T02061040  RH  019%=      5-min Rain = 0
KEN1 161858Z 28007KT 21/M04 A2998 RMK A01 T02061039  RH  019%=      5-min Rain = 0
KEN1 161859Z 27006KT 21/M04 A2998 RMK A01 T02081038  RH  019%=      5-min Rain = 0
KEN1 161900Z 27005KT 21/M04 A2998 RMK A01 T02081040  RH  019%=      5-min Rain = 0
KEN1 161901Z 28006KT 21/M04 A2998 RMK A01 T02091039  RH  019%=      5-min Rain = 0
KEN1 161902Z 27007KT 21/M04 A2998 RMK A01 T02091041  RH  018%=      5-min Rain = 0
KEN1 161903Z 28006KT 21/M04 A2998 RMK A01 T02081041  RH  018%=      5-min Rain = 0
KEN1 161904Z 27005KT 21/M04 A2997 RMK A01 T02071043  RH  018%=      5-min Rain = 0
KEN1 161905Z 26003KT 21/M05 A2997 RMK A01 T02051045  RH  018%=      5-min Rain = 0
KEN1 161906Z 23003KT 20/M04 A2997 RMK A01 T02031043  RH  019%=      5-min Rain = 0
KEN1 161907Z 25005KT 20/M04 A2997 RMK A01 T02041042  RH  019%=      5-min Rain = 0
KEN1 161908Z 26006KT 21/M04 A2997 RMK A01 T02051041  RH  019%=      5-min Rain = 0
KEN1 161909Z 27005KT 20/M04 A2997 RMK A01 T02041041  RH  019%=      5-min Rain = 0
KEN1 161910Z 25006KT 21/M04 A2997 RMK A01 T02051039  RH  019%=      5-min Rain = 0
KEN1 161911Z 26004KT 20/M04 A2997 RMK A01 T02041041  RH  019%=      5-min Rain = 0
KEN1 161912Z 27004KT 21/M04 A2997 RMK A01 T02051041  RH  019%=      5-min Rain = 0
KEN1 161913Z 27006KT 21/M04 A2997 RMK A01 T02051040  RH  019%=      5-min Rain = 0
KEN1 161914Z 27005KT 21/M04 A2997 RMK A01 T02061043  RH  018%=      5-min Rain = 0
KEN1 161915Z 26004KT 21/M04 A2997 RMK A01 T02051043  RH  018%=      5-min Rain = 0
KEN1 161916Z 26003KT 21/M04 A2996 RMK A01 T02051040  RH  019%=      5-min Rain = 0
KEN1 161917Z 26003KT 21/M04 A2996 RMK A01 T02051044  RH  018%=      5-min Rain = 0
KEN1 161918Z 27002KT 21/M04 A2996 RMK A01 T02051043  RH  018%=      5-min Rain = 0
KEN1 161919Z 27005KT 21/M04 A2996 RMK A01 T02051042  RH  019%=      5-min Rain = 0
KEN1 161920Z 26007KT 21/M04 A2996 RMK A01 T02051039  RH  019%=      5-min Rain = 0
KEN1 161921Z 26006KT 21/M04 A2996 RMK A01 T02051039  RH  019%=      5-min Rain = 0
KEN1 161922Z 26003KT 20/M04 A2996 RMK A01 T02041041  RH  019%=      5-min Rain = 0
KEN1 161923Z 27003KT 20/M04 A2996 RMK A01 T02021040  RH  019%=      5-min Rain = 0
KEN1 161924Z 25003KT 20/M04 A2996 RMK A01 T02031038  RH  019%=      5-min Rain = 0
KEN1 161925Z 24003KT 20/M04 A2996 RMK A01 T02031040  RH  019%=      5-min Rain = 0
KEN1 161926Z 28004KT 20/M04 A2996 RMK A01 T02031040  RH  019%=      5-min Rain = 0
KEN1 161927Z 29004KT 20/M04 A2996 RMK A01 T02041040  RH  019%=      5-min Rain = 0
KEN1 161928Z 28005KT 20/M04 A2996 RMK A01 T02031040  RH  019%=      5-min Rain = 0
KEN1 161929Z 28004KT 20/M04 A2996 RMK A01 T02041039  RH  019%=      5-min Rain = 0
KEN1 161930Z 26004KT 20/M04 A2996 RMK A01 T02041041  RH  019%=      5-min Rain = 0
KEN1 161931Z 26005KT 20/M04 A2996 RMK A01 T02041040  RH  019%=      5-min Rain = 0
KEN1 161932Z 26005KT 20/M04 A2995 RMK A01 T02041041  RH  019%=      5-min Rain = 0
KEN1 161933Z 25004KT 20/M04 A2995 RMK A01 T02041041  RH  019%=      5-min Rain = 0
KEN1 161934Z 26004KT 20/M04 A2995 RMK A01 T02041042  RH  019%=      5-min Rain = 0
KEN1 161935Z 25003KT 20/M04 A2995 RMK A01 T02041042  RH  019%=      5-min Rain = 0
KEN1 161936Z 27004KT 20/M04 A2995 RMK A01 T02041037  RH  019%=      5-min Rain = 0
KEN1 161937Z 27004KT 20/M04 A2995 RMK A01 T02041037  RH  019%=      5-min Rain = 0
KEN1 161938Z 26004KT 20/M04 A2995 RMK A01 T02041040  RH  019%=      5-min Rain = 0
KEN1 161939Z 27004KT 20/M04 A2995 RMK A01 T02041037  RH  019%=      5-min Rain = 0
KEN1 161940Z 26005KT 20/M04 A2995 RMK A01 T02041035  RH  020%=      5-min Rain = 0
KEN1 161941Z 26004KT 20/M04 A2995 RMK A01 T02041040  RH  019%=      5-min Rain = 0
KEN1 161942Z 26006KT 20/M04 A2995 RMK A01 T02041041  RH  019%=      5-min Rain = 0
KEN1 161943Z 27005KT 20/M04 A2995 RMK A01 T02041040  RH  019%=      5-min Rain = 0
KEN1 161944Z 27006KT 20/M04 A2995 RMK A01 T02041040  RH  019%=      5-min Rain = 0
KEN1 161945Z 28005KT 20/M04 A2995 RMK A01 T02041041  RH  019%=      5-min Rain = 0
KEN1 161946Z 28004KT 20/M04 A2995 RMK A01 T02041041  RH  019%=      5-min Rain = 0
KEN1 161947Z 26005KT 20/M04 A2995 RMK A01 T02041040  RH  019%=      5-min Rain = 0
KEN1 161948Z 26006KT 20/M04 A2995 RMK A01 T02041038  RH  019%=      5-min Rain = 0
KEN1 161949Z 27005KT 20/M04 A2995 RMK A01 T02041036  RH  020%=      5-min Rain = 0
KEN1 161950Z 27004KT 20/M04 A2995 RMK A01 T02041035  RH  020%=      5-min Rain = 0
KEN1 161951Z 27005KT 20/M03 A2995 RMK A01 T02041033  RH  020%=      5-min Rain = 0
KEN1 161952Z 28007KT 20/M03 A2995 RMK A01 T02041032  RH  020%=      5-min Rain = 0
KEN1 161953Z 28006KT 20/M03 A2995 RMK A01 T02041032  RH  020%=      5-min Rain = 0
KEN1 161954Z 29006KT 20/M03 A2995 RMK A01 T02031033  RH  020%=      5-min Rain = 0
KEN1 161955Z 29006KT 20/M04 A2995 RMK A01 T02021035  RH  020%=      5-min Rain = 0
KEN1 161956Z 28005KT 20/M03 A2995 RMK A01 T02021033  RH  020%=      5-min Rain = 0
KEN1 161957Z 29003KT 20/M04 A2995 RMK A01 T02011036  RH  020%=      5-min Rain = 0
KEN1 161958Z 29004KT 20/M03 A2995 RMK A01 T02011031  RH  021%=      5-min Rain = 0
KEN1 161959Z 28004KT 20/M04 A2995 RMK A01 T02011035  RH  020%=      5-min Rain = 0
KEN1 162000Z 26005KT 20/M03 A2995 RMK A01 T02021032  RH  020%=      5-min Rain = 0
KEN1 162001Z 27005KT 20/M03 A2994 RMK A01 T02021032  RH  020%=      5-min Rain = 0
KEN1 162002Z 27004KT 20/M03 A2994 RMK A01 T02031031  RH  020%=      5-min Rain = 0
KEN1 162003Z 25005KT 20/M03 A2994 RMK A01 T02041030  RH  020%=      5-min Rain = 0
KEN1 162004Z 27004KT 21/M03 A2994 RMK A01 T02051032  RH  020%=      5-min Rain = 0
KEN1 162005Z 29004KT 21/M03 A2994 RMK A01 T02051031  RH  020%=      5-min Rain = 0
KEN1 162006Z 27005KT 21/M03 A2994 RMK A01 T02051033  RH  020%=      5-min Rain = 0
KEN1 162007Z 28004KT 20/M03 A2994 RMK A01 T02041033  RH  020%=      5-min Rain = 0
KEN1 162008Z 27004KT 21/M03 A2994 RMK A01 T02051031  RH  020%=      5-min Rain = 0
KEN1 162009Z 28006KT 21/M03 A2994 RMK A01 T02061030  RH  020%=      5-min Rain = 0
KEN1 162010Z 28005KT 21/M03 A2994 RMK A01 T02061033  RH  020%=      5-min Rain = 0
KEN1 162011Z 28005KT 21/M03 A2994 RMK A01 T02061033  RH  020%=      5-min Rain = 0
KEN1 162012Z 26005KT 21/M03 A2994 RMK A01 T02061031  RH  020%=      5-min Rain = 0
KEN1 162013Z 26005KT 21/M03 A2994 RMK A01 T02071031  RH  020%=      5-min Rain = 0
KEN1 162014Z 27005KT 21/M03 A2994 RMK A01 T02081032  RH  020%=      5-min Rain = 0
KEN1 162015Z 28005KT 21/M03 A2994 RMK A01 T02081033  RH  019%=      5-min Rain = 0
KEN1 162016Z 29005KT 21/M03 A2994 RMK A01 T02071034  RH  020%=      5-min Rain = 0
KEN1 162017Z 29004KT 21/M03 A2994 RMK A01 T02071033  RH  020%=      5-min Rain = 0
KEN1 162018Z 30005KT 21/M03 A2993 RMK A01 T02071032  RH  020%=      5-min Rain = 0
KEN1 162019Z 29005KT 21/M03 A2993 RMK A01 T02071032  RH  020%=      5-min Rain = 0
KEN1 162020Z 28005KT 21/M03 A2994 RMK A01 T02091031  RH  020%=      5-min Rain = 0
KEN1 162021Z 27003KT 21/M03 A2994 RMK A01 T02091032  RH  019%=      5-min Rain = 0
KEN1 162022Z 28004KT 21/M03 A2993 RMK A01 T02101033  RH  019%=      5-min Rain = 0
KEN1 162023Z 29003KT 21/M03 A2994 RMK A01 T02101033  RH  019%=      5-min Rain = 0
KEN1 162024Z 28004KT 21/M03 A2994 RMK A01 T02101032  RH  019%=      5-min Rain = 0
KEN1 162025Z 27004KT 21/M03 A2993 RMK A01 T02101032  RH  019%=      5-min Rain = 0
KEN1 162026Z 28005KT 21/M03 A2993 RMK A01 T02101032  RH  019%=      5-min Rain = 0
KEN1 162027Z 27004KT 21/M03 A2993 RMK A01 T02101034  RH  019%=      5-min Rain = 0
KEN1 162028Z 27004KT 21/M04 A2993 RMK A01 T02081035  RH  019%=      5-min Rain = 0
KEN1 162029Z 27005KT 21/M03 A2993 RMK A01 T02071034  RH  019%=      5-min Rain = 0
KEN1 162030Z 28006KT 21/M03 A2993 RMK A01 T02081031  RH  020%=      5-min Rain = 0
KEN1 162031Z 28006KT 21/M03 A2993 RMK A01 T02081033  RH  020%=      5-min Rain = 0
KEN1 162032Z 28005KT 21/M03 A2993 RMK A01 T02081033  RH  020%=      5-min Rain = 0
KEN1 162033Z 28005KT 21/M03 A2993 RMK A01 T02071034  RH  019%=      5-min Rain = 0
KEN1 162034Z 27003KT 21/M03 A2993 RMK A01 T02061034  RH  020%=      5-min Rain = 0
KEN1 162035Z 27003KT 21/M03 A2993 RMK A01 T02061033  RH  020%=      5-min Rain = 0
KEN1 162036Z 29004KT 21/M03 A2993 RMK A01 T02061033  RH  020%=      5-min Rain = 0
KEN1 162037Z 28004KT 21/M04 A2993 RMK A01 T02061035  RH  020%=      5-min Rain = 0
KEN1 162038Z 30004KT 21/M03 A2993 RMK A01 T02061031  RH  020%=      5-min Rain = 0
KEN1 162039Z 29004KT 21/M03 A2993 RMK A01 T02071031  RH  020%=      5-min Rain = 0
KEN1 162040Z 29005KT 21/M03 A2993 RMK A01 T02071034  RH  019%=      5-min Rain = 0
KEN1 162041Z 28003KT 21/M04 A2993 RMK A01 T02071036  RH  019%=      5-min Rain = 0
KEN1 162042Z 29003KT 21/M04 A2993 RMK A01 T02071035  RH  019%=      5-min Rain = 0
KEN1 162043Z 28003KT 21/M03 A2993 RMK A01 T02071034  RH  019%=      5-min Rain = 0
KEN1 162044Z 29004KT 21/M04 A2993 RMK A01 T02081035  RH  019%=      5-min Rain = 0
KEN1 162045Z 26004KT 21/M04 A2993 RMK A01 T02081035  RH  019%=      5-min Rain = 0
KEN1 162046Z 27004KT 21/M04 A2993 RMK A01 T02081035  RH  019%=      5-min Rain = 0
KEN1 162047Z 28004KT 21/M03 A2993 RMK A01 T02091034  RH  019%=      5-min Rain = 0
KEN1 162048Z 28003KT 21/M04 A2993 RMK A01 T02091035  RH  019%=      5-min Rain = 0
KEN1 162049Z 27003KT 21/M04 A2993 RMK A01 T02091036  RH  019%=      5-min Rain = 0
KEN1 162050Z 27003KT 21/M04 A2993 RMK A01 T02091035  RH  019%=      5-min Rain = 0
KEN1 162051Z 29005KT 21/M03 A2993 RMK A01 T02091032  RH  020%=      5-min Rain = 0
KEN1 162052Z 29004KT 21/M03 A2993 RMK A01 T02091034  RH  019%=      5-min Rain = 0
KEN1 162053Z 27004KT 21/M03 A2993 RMK A01 T02091032  RH  019%=      5-min Rain = 0
KEN1 162054Z 26004KT 21/M04 A2993 RMK A01 T02091035  RH  019%=      5-min Rain = 0
KEN1 162055Z 27004KT 21/M04 A2993 RMK A01 T02091035  RH  019%=      5-min Rain = 0
KEN1 162056Z 28004KT 21/M04 A2993 RMK A01 T02081035  RH  019%=      5-min Rain = 0
KEN1 162057Z 27004KT 21/M03 A2993 RMK A01 T02081034  RH  019%=      5-min Rain = 0
KEN1 162058Z 28003KT 21/M04 A2993 RMK A01 T02081035  RH  019%=      5-min Rain = 0
KEN1 162059Z 27004KT 21/M03 A2993 RMK A01 T02081034  RH  019%=      5-min Rain = 0
KEN1 162100Z 26004KT 21/M03 A2993 RMK A01 T02081034  RH  019%=      5-min Rain = 0
KEN1 162101Z 26004KT 21/M04 A2993 RMK A01 T02081035  RH  019%=      5-min Rain = 0
KEN1 162102Z 26003KT 21/M04 A2993 RMK A01 T02081035  RH  019%=      5-min Rain = 0
KEN1 162103Z 26003KT 21/M04 A2993 RMK A01 T02081037  RH  019%=      5-min Rain = 0
KEN1 162104Z 27003KT 21/M04 A2993 RMK A01 T02081036  RH  019%=      5-min Rain = 0
KEN1 162105Z 29004KT 21/M04 A2993 RMK A01 T02081036  RH  019%=      5-min Rain = 0
KEN1 162106Z 30003KT 21/M04 A2993 RMK A01 T02081036  RH  019%=      5-min Rain = 0
KEN1 162107Z 30003KT 21/M03 A2993 RMK A01 T02081034  RH  019%=      5-min Rain = 0
KEN1 162108Z 31003KT 21/M03 A2993 RMK A01 T02091034  RH  019%=      5-min Rain = 0
KEN1 162109Z 31003KT 21/M04 A2993 RMK A01 T02091035  RH  019%=      5-min Rain = 0
KEN1 162110Z 30003KT 21/M03 A2993 RMK A01 T02101034  RH  019%=      5-min Rain = 0
KEN1 162111Z 31003KT 21/M03 A2993 RMK A01 T02101033  RH  019%=      5-min Rain = 0
KEN1 162112Z 32005KT 21/M03 A2993 RMK A01 T02111033  RH  019%=      5-min Rain = 0
KEN1 162113Z 31005KT 21/M04 A2993 RMK A01 T02111035  RH  019%=      5-min Rain = 0
KEN1 162114Z 31004KT 21/M03 A2993 RMK A01 T02111033  RH  019%=      5-min Rain = 0
KEN1 162115Z 29004KT 21/M03 A2992 RMK A01 T02111032  RH  019%=      5-min Rain = 0
KEN1 162116Z 28004KT 21/M03 A2992 RMK A01 T02111033  RH  019%=      5-min Rain = 0
KEN1 162117Z 29004KT 21/M03 A2992 RMK A01 T02111033  RH  019%=      5-min Rain = 0
KEN1 162118Z 29003KT 21/M04 A2992 RMK A01 T02111035  RH  019%=      5-min Rain = 0
KEN1 162119Z 29003KT 21/M04 A2992 RMK A01 T02111035  RH  019%=      5-min Rain = 0
KEN1 162120Z 27002KT 21/M04 A2992 RMK A01 T02111037  RH  019%=      5-min Rain = 0
KEN1 162121Z 26003KT 21/M04 A2992 RMK A01 T02101037  RH  019%=      5-min Rain = 0
KEN1 162122Z 27002KT 21/M04 A2992 RMK A01 T02101037  RH  019%=      5-min Rain = 0
KEN1 162123Z 27002KT 21/M03 A2992 RMK A01 T02111034  RH  019%=      5-min Rain = 0
KEN1 162124Z 27001KT 21/M03 A2992 RMK A01 T02121034  RH  019%=      5-min Rain = 0
KEN1 162125Z 28002KT 21/M03 A2992 RMK A01 T02131034  RH  019%=      5-min Rain = 0
KEN1 162126Z 29003KT 21/M04 A2992 RMK A01 T02131035  RH  019%=      5-min Rain = 0
KEN1 162127Z 27003KT 21/M03 A2992 RMK A01 T02131033  RH  019%=      5-min Rain = 0
KEN1 162128Z 26004KT 21/M03 A2992 RMK A01 T02131033  RH  019%=      5-min Rain = 0
KEN1 162129Z 26003KT 21/M04 A2992 RMK A01 T02131036  RH  019%=      5-min Rain = 0
KEN1 162130Z 27002KT 21/M04 A2992 RMK A01 T02121035  RH  019%=      5-min Rain = 0
KEN1 162131Z 28001KT 21/M04 A2992 RMK A01 T02121036  RH  019%=      5-min Rain = 0
KEN1 162132Z 27000KT 21/M04 A2992 RMK A01 T02131036  RH  019%=      5-min Rain = 0
KEN1 162133Z 24002KT 21/M03 A2992 RMK A01 T02131032  RH  019%=      5-min Rain = 0
KEN1 162134Z 23002KT 22/M03 A2992 RMK A01 T02151031  RH  019%=      5-min Rain = 0
KEN1 162135Z 23002KT 22/M03 A2992 RMK A01 T02181033  RH  018%=      5-min Rain = 0
KEN1 162136Z 26002KT 22/M03 A2992 RMK A01 T02201034  RH  018%=      5-min Rain = 0
KEN1 162137Z 26004KT 22/M03 A2992 RMK A01 T02211034  RH  018%=      5-min Rain = 0
KEN1 162138Z 25005KT 22/M03 A2992 RMK A01 T02221034  RH  018%=      5-min Rain = 0
KEN1 162139Z 23004KT 22/M03 A2992 RMK A01 T02221034  RH  018%=      5-min Rain = 0
KEN1 162140Z 23003KT 22/M04 A2992 RMK A01 T02221036  RH  018%=      5-min Rain = 0
KEN1 162141Z 25003KT 22/M04 A2992 RMK A01 T02211035  RH  018%=      5-min Rain = 0
KEN1 162142Z 25002KT 22/M04 A2992 RMK A01 T02191037  RH  018%=      5-min Rain = 0
KEN1 162143Z 27002KT 22/M04 A2992 RMK A01 T02181035  RH  018%=      5-min Rain = 0
KEN1 162144Z 28002KT 22/M03 A2992 RMK A01 T02191033  RH  018%=      5-min Rain = 0
KEN1 162145Z 27002KT 22/M04 A2992 RMK A01 T02191035  RH  018%=      5-min Rain = 0
KEN1 162146Z 21002KT 22/M03 A2992 RMK A01 T02181034  RH  018%=      5-min Rain = 0
KEN1 162147Z 15001KT 22/M04 A2992 RMK A01 T02181036  RH  018%=      5-min Rain = 0
KEN1 162148Z 30002KT 22/M03 A2992 RMK A01 T02181034  RH  018%=      5-min Rain = 0
KEN1 162149Z 27004KT 22/M03 A2992 RMK A01 T02171033  RH  018%=      5-min Rain = 0
KEN1 162150Z 27004KT 22/M03 A2993 RMK A01 T02171034  RH  018%=      5-min Rain = 0
KEN1 162151Z 26005KT 22/M03 A2993 RMK A01 T02161034  RH  018%=      5-min Rain = 0
KEN1 162152Z 25004KT 22/M03 A2993 RMK A01 T02161034  RH  018%=      5-min Rain = 0
KEN1 162153Z 25003KT 22/M03 A2993 RMK A01 T02161034  RH  018%=      5-min Rain = 0
KEN1 162154Z 25002KT 22/M04 A2992 RMK A01 T02161037  RH  018%=      5-min Rain = 0
KEN1 162155Z 25003KT 22/M04 A2992 RMK A01 T02171035  RH  018%=      5-min Rain = 0
KEN1 162156Z 25003KT 22/M04 A2992 RMK A01 T02171036  RH  018%=      5-min Rain = 0
KEN1 162157Z 26002KT 22/M04 A2992 RMK A01 T02181037  RH  018%=      5-min Rain = 0
KEN1 162158Z 28002KT 22/M04 A2992 RMK A01 T02191036  RH  018%=      5-min Rain = 0
KEN1 162159Z 27001KT 22/M04 A2992 RMK A01 T02191037  RH  018%=      5-min Rain = 0
KEN1 162200Z 23002KT 22/M04 A2992 RMK A01 T02201038  RH  018%=      5-min Rain = 0
KEN1 162201Z 23001KT 22/M04 A2992 RMK A01 T02201038  RH  017%=      5-min Rain = 0
KEN1 162202Z 27002KT 22/M03 A2992 RMK A01 T02221034  RH  018%=      5-min Rain = 0
KEN1 162203Z 27001KT 22/M03 A2992 RMK A01 T02231033  RH  018%=      5-min Rain = 0
KEN1 162204Z 28003KT 22/M04 A2992 RMK A01 T02241036  RH  017%=      5-min Rain = 0
KEN1 162205Z 28003KT 22/M04 A2992 RMK A01 T02231038  RH  017%=      5-min Rain = 0
KEN1 162206Z 27002KT 22/M04 A2992 RMK A01 T02221039  RH  017%=      5-min Rain = 0
KEN1 162207Z 27000KT 22/M04 A2992 RMK A01 T02211040  RH  017%=      5-min Rain = 0
KEN1 162208Z 00000KT 22/M04 A2992 RMK A01 T02201040  RH  017%=      5-min Rain = 0
KEN1 162209Z 00000KT 22/M04 A2992 RMK A01 T02211040  RH  017%=      5-min Rain = 0
KEN1 162210Z 00000KT 22/M04 A2992 RMK A01 T02231038  RH  017%=      5-min Rain = 0
KEN1 162211Z 00000KT 23/M04 A2992 RMK A01 T02251037  RH  017%=      5-min Rain = 0
KEN1 162212Z 00000KT 23/M04 A2992 RMK A01 T02261037  RH  017%=      5-min Rain = 0
KEN1 162213Z 00000KT 23/M04 A2992 RMK A01 T02271037  RH  017%=      5-min Rain = 0
KEN1 162214Z 23000KT 23/M04 A2992 RMK A01 T02281038  RH  017%=      5-min Rain = 0
KEN1 162215Z 21001KT 23/M04 A2992 RMK A01 T02291038  RH  016%=      5-min Rain = 0
KEN1 162216Z 22003KT 23/M04 A2992 RMK A01 T02301038  RH  016%=      5-min Rain = 0
KEN1 162217Z 22002KT 23/M04 A2992 RMK A01 T02301039  RH  016%=      5-min Rain = 0
KEN1 162218Z 22002KT 23/M04 A2992 RMK A01 T02301040  RH  016%=      5-min Rain = 0
KEN1 162219Z 21002KT 23/M04 A2992 RMK A01 T02301039  RH  016%=      5-min Rain = 0
KEN1 162220Z 21001KT 23/M04 A2992 RMK A01 T02301039  RH  016%=      5-min Rain = 0
KEN1 162221Z 21001KT 23/M04 A2992 RMK A01 T02301039  RH  016%=      5-min Rain = 0
KEN1 162222Z 22002KT 23/M04 A2992 RMK A01 T02311039  RH  016%=      5-min Rain = 0
KEN1 162223Z 21001KT 23/M04 A2992 RMK A01 T02301039  RH  016%=      5-min Rain = 0
KEN1 162224Z 18002KT 23/M04 A2992 RMK A01 T02311039  RH  016%=      5-min Rain = 0
KEN1 162225Z 19002KT 23/M04 A2992 RMK A01 T02321038  RH  016%=      5-min Rain = 0
KEN1 162226Z 18002KT 23/M04 A2992 RMK A01 T02311036  RH  017%=      5-min Rain = 0
KEN1 162227Z 19003KT 23/M04 A2992 RMK A01 T02311036  RH  017%=      5-min Rain = 0
KEN1 162228Z 20002KT 23/M04 A2992 RMK A01 T02301035  RH  017%=      5-min Rain = 0
KEN1 162229Z 21001KT 23/M04 A2992 RMK A01 T02291036  RH  017%=      5-min Rain = 0
KEN1 162230Z 23003KT 23/M04 A2992 RMK A01 T02281037  RH  017%=      5-min Rain = 0
KEN1 162231Z 26002KT 23/M04 A2992 RMK A01 T02281038  RH  017%=      5-min Rain = 0
KEN1 162232Z 27003KT 23/M04 A2992 RMK A01 T02281038  RH  017%=      5-min Rain = 0
KEN1 162233Z 25003KT 23/M04 A2992 RMK A01 T02281039  RH  017%=      5-min Rain = 0
KEN1 162234Z 22002KT 23/M04 A2992 RMK A01 T02271039  RH  017%=      5-min Rain = 0
KEN1 162235Z 21002KT 23/M04 A2992 RMK A01 T02271036  RH  017%=      5-min Rain = 0
KEN1 162236Z 23001KT 23/M04 A2992 RMK A01 T02271037  RH  017%=      5-min Rain = 0
KEN1 162237Z 22002KT 23/M04 A2992 RMK A01 T02281036  RH  017%=      5-min Rain = 0
KEN1 162238Z 21002KT 23/M04 A2992 RMK A01 T02281040  RH  016%=      5-min Rain = 0
KEN1 162239Z 20002KT 23/M04 A2992 RMK A01 T02281039  RH  017%=      5-min Rain = 0
KEN1 162240Z 20003KT 23/M04 A2992 RMK A01 T02281036  RH  017%=      5-min Rain = 0
KEN1 162241Z 21002KT 23/M04 A2992 RMK A01 T02271037  RH  017%=      5-min Rain = 0
KEN1 162242Z 22002KT 23/M04 A2992 RMK A01 T02271039  RH  017%=      5-min Rain = 0
KEN1 162243Z 22002KT 23/M04 A2992 RMK A01 T02261040  RH  017%=      5-min Rain = 0
KEN1 162244Z 20002KT 23/M04 A2992 RMK A01 T02251040  RH  017%=      5-min Rain = 0
KEN1 162245Z 20003KT 23/M04 A2992 RMK A01 T02261035  RH  017%=      5-min Rain = 0
KEN1 162246Z 20003KT 23/M04 A2992 RMK A01 T02251036  RH  017%=      5-min Rain = 0
KEN1 162247Z 19003KT 23/M04 A2992 RMK A01 T02251036  RH  017%=      5-min Rain = 0
KEN1 162248Z 20003KT 22/M04 A2992 RMK A01 T02241035  RH  017%=      5-min Rain = 0
KEN1 162249Z 19003KT 22/M03 A2992 RMK A01 T02241034  RH  018%=      5-min Rain = 0
KEN1 162250Z 19003KT 22/M03 A2992 RMK A01 T02231032  RH  018%=      5-min Rain = 0
KEN1 162251Z 19003KT 22/M03 A2992 RMK A01 T02221033  RH  018%=      5-min Rain = 0
KEN1 162252Z 18004KT 22/M03 A2992 RMK A01 T02211033  RH  018%=      5-min Rain = 0
KEN1 162253Z 18004KT 22/M03 A2992 RMK A01 T02201031  RH  018%=      5-min Rain = 0
KEN1 162254Z 18003KT 22/M03 A2992 RMK A01 T02181033  RH  018%=      5-min Rain = 0
KEN1 162255Z 18003KT 22/M03 A2992 RMK A01 T02161033  RH  019%=      5-min Rain = 0
KEN1 162256Z 17003KT 22/M03 A2992 RMK A01 T02161034  RH  018%=      5-min Rain = 0
KEN1 162257Z 16002KT 22/M03 A2991 RMK A01 T02161032  RH  019%=      5-min Rain = 0
KEN1 162258Z 15002KT 22/M03 A2991 RMK A01 T02161029  RH  019%=      5-min Rain = 0
KEN1 162259Z 14003KT 22/M03 A2991 RMK A01 T02161028  RH  019%=      5-min Rain = 0
KEN1 162300Z 14003KT 22/M03 A2991 RMK A01 T02171028  RH  019%=      5-min Rain = 0
KEN1 162301Z 14003KT 22/M03 A2991 RMK A01 T02161026  RH  020%=      5-min Rain = 0
KEN1 162302Z 14003KT 22/M03 A2991 RMK A01 T02161025  RH  020%=      5-min Rain = 0
KEN1 162303Z 14003KT 22/M03 A2991 RMK A01 T02151025  RH  020%=      5-min Rain = 0
KEN1 162304Z 15002KT 21/M03 A2991 RMK A01 T02141027  RH  020%=      5-min Rain = 0
KEN1 162305Z 15002KT 21/M03 A2991 RMK A01 T02131027  RH  020%=      5-min Rain = 0
KEN1 162306Z 15002KT 21/M03 A2991 RMK A01 T02121026  RH  020%=      5-min Rain = 0
KEN1 162307Z 15002KT 21/M03 A2991 RMK A01 T02111026  RH  020%=      5-min Rain = 0
KEN1 162308Z 15002KT 21/M03 A2991 RMK A01 T02101026  RH  020%=      5-min Rain = 0
KEN1 162309Z 14002KT 21/M03 A2991 RMK A01 T02091026  RH  020%=      5-min Rain = 0
KEN1 162310Z 14002KT 21/M03 A2991 RMK A01 T02081025  RH  021%=      5-min Rain = 0
KEN1 162311Z 14002KT 21/M03 A2991 RMK A01 T02081025  RH  021%=      5-min Rain = 0
KEN1 162312Z 14002KT 21/M02 A2992 RMK A01 T02081024  RH  021%=      5-min Rain = 0
KEN1 162313Z 13002KT 21/M02 A2992 RMK A01 T02071023  RH  021%=      5-min Rain = 0
KEN1 162314Z 12002KT 21/M03 A2992 RMK A01 T02061025  RH  021%=      5-min Rain = 0
KEN1 162315Z 12002KT 21/M03 A2992 RMK A01 T02051028  RH  021%=      5-min Rain = 0
KEN1 162316Z 12001KT 21/M03 A2992 RMK A01 T02051031  RH  020%=      5-min Rain = 0
KEN1 162317Z 13001KT 21/M03 A2992 RMK A01 T02051032  RH  020%=      5-min Rain = 0
KEN1 162318Z 13001KT 21/M03 A2992 RMK A01 T02051031  RH  020%=      5-min Rain = 0
KEN1 162319Z 13001KT 21/M03 A2992 RMK A01 T02051032  RH  020%=      5-min Rain = 0
KEN1 162320Z 13000KT 21/M03 A2992 RMK A01 T02061032  RH  020%=      5-min Rain = 0
KEN1 162321Z 00000KT 21/M03 A2992 RMK A01 T02061032  RH  020%=      5-min Rain = 0
KEN1 162322Z 00000KT 21/M03 A2992 RMK A01 T02051032  RH  020%=      5-min Rain = 0
KEN1 162323Z 00000KT 21/M03 A2992 RMK A01 T02051032  RH  020%=      5-min Rain = 0
KEN1 162324Z 00000KT 21/M03 A2992 RMK A01 T02051033  RH  020%=      5-min Rain = 0
KEN1 162325Z 00000KT 20/M03 A2992 RMK A01 T02041033  RH  020%=      5-min Rain = 0
KEN1 162326Z 00000KT 20/M03 A2992 RMK A01 T02041032  RH  020%=      5-min Rain = 0
KEN1 162327Z 04001KT 20/M03 A2992 RMK A01 T02021032  RH  020%=      5-min Rain = 0
KEN1 162328Z 04002KT 20/M04 A2992 RMK A01 T01951035  RH  021%=      5-min Rain = 0
KEN1 162329Z 04003KT 19/M04 A2992 RMK A01 T01891036  RH  021%=      5-min Rain = 0
KEN1 162330Z 04003KT 19/M04 A2992 RMK A01 T01861037  RH  022%=      5-min Rain = 0
KEN1 162331Z 04003KT 19/M04 A2992 RMK A01 T01871036  RH  022%=      5-min Rain = 0
KEN1 162332Z 04003KT 19/M04 A2992 RMK A01 T01871037  RH  022%=      5-min Rain = 0
KEN1 162333Z 03003KT 19/M04 A2992 RMK A01 T01851038  RH  022%=      5-min Rain = 0
KEN1 162334Z 04003KT 18/M04 A2992 RMK A01 T01841039  RH  022%=      5-min Rain = 0
KEN1 162335Z 04003KT 18/M04 A2992 RMK A01 T01841039  RH  022%=      5-min Rain = 0
KEN1 162336Z 03003KT 19/M04 A2992 RMK A01 T01871039  RH  021%=      5-min Rain = 0
KEN1 162337Z 03003KT 19/M04 A2992 RMK A01 T01881039  RH  021%=      5-min Rain = 0
KEN1 162338Z 03003KT 19/M04 A2992 RMK A01 T01891039  RH  021%=      5-min Rain = 0
KEN1 162339Z 04003KT 19/M04 A2993 RMK A01 T01891039  RH  021%=      5-min Rain = 0
KEN1 162340Z 03003KT 19/M04 A2993 RMK A01 T01881039  RH  021%=      5-min Rain = 0
KEN1 162341Z 04003KT 19/M04 A2992 RMK A01 T01901037  RH  021%=      5-min Rain = 0
KEN1 162342Z 04003KT 19/M04 A2992 RMK A01 T01931036  RH  021%=      5-min Rain = 0
KEN1 162343Z 04003KT 20/M04 A2992 RMK A01 T01951036  RH  021%=      5-min Rain = 0
KEN1 162344Z 04003KT 20/M04 A2992 RMK A01 T01961036  RH  021%=      5-min Rain = 0
KEN1 162345Z 04003KT 20/M04 A2992 RMK A01 T01961036  RH  021%=      5-min Rain = 0
KEN1 162346Z 04003KT 20/M04 A2993 RMK A01 T01971035  RH  021%=      5-min Rain = 0
KEN1 162347Z 04003KT 20/M04 A2993 RMK A01 T01971035  RH  020%=      5-min Rain = 0
KEN1 162348Z 04004KT 20/M04 A2993 RMK A01 T01981035  RH  021%=      5-min Rain = 0
KEN1 162349Z 04004KT 20/M04 A2993 RMK A01 T01981035  RH  021%=      5-min Rain = 0
KEN1 162350Z 04004KT 20/M04 A2993 RMK A01 T01971035  RH  021%=      5-min Rain = 0
KEN1 162351Z 04004KT 20/M04 A2993 RMK A01 T01961036  RH  021%=      5-min Rain = 0
KEN1 162352Z 03004KT 20/M04 A2993 RMK A01 T01961035  RH  021%=      5-min Rain = 0
KEN1 162353Z 03004KT 20/M04 A2993 RMK A01 T01961035  RH  021%=      5-min Rain = 0
KEN1 162354Z 03004KT 20/M03 A2993 RMK A01 T01971034  RH  021%=      5-min Rain = 0
KEN1 162355Z 03004KT 20/M03 A2993 RMK A01 T01971034  RH  021%=      5-min Rain = 0
KEN1 162356Z 04003KT 20/M04 A2993 RMK A01 T01971035  RH  021%=      5-min Rain = 0
KEN1 162357Z 04003KT 20/M03 A2993 RMK A01 T01971034  RH  021%=      5-min Rain = 0
KEN1 162358Z 04003KT 20/M04 A2993 RMK A01 T01961035  RH  021%=      5-min Rain = 0
KEN1 162359Z 04003KT 20/M04 A2993 RMK A01 T01951035  RH  021%=      5-min Rain = 0
KEN1 170000Z 04003KT 20/M03 A2993 RMK A01 T01951034  RH  021%=      5-min Rain = 0
KEN1 170001Z 04003KT 19/M04 A2993 RMK A01 T01931035  RH  021%=      5-min Rain = 0
KEN1 170002Z 04003KT 19/M04 A2993 RMK A01 T01931036  RH  021%=      5-min Rain = 0
KEN1 170003Z 04003KT 19/M04 A2993 RMK A01 T01921036  RH  021%=      5-min Rain = 0
KEN1 170004Z 04003KT 19/M04 A2993 RMK A01 T01931036  RH  021%=      5-min Rain = 0
KEN1 170005Z 04003KT 19/M04 A2993 RMK A01 T01931035  RH  021%=      5-min Rain = 0
KEN1 170006Z 04003KT 19/M04 A2993 RMK A01 T01931035  RH  021%=      5-min Rain = 0
KEN1 170007Z 04003KT 19/M04 A2993 RMK A01 T01941035  RH  021%=      5-min Rain = 0
KEN1 170008Z 04003KT 19/M03 A2993 RMK A01 T01941034  RH  021%=      5-min Rain = 0
KEN1 170009Z 04003KT 19/M04 A2993 RMK A01 T01941035  RH  021%=      5-min Rain = 0
KEN1 170010Z 04003KT 19/M04 A2993 RMK A01 T01941035  RH  021%=      5-min Rain = 0
KEN1 170011Z 04003KT 19/M04 A2993 RMK A01 T01921036  RH  021%=      5-min Rain = 0
KEN1 170012Z 04002KT 19/M04 A2993 RMK A01 T01901036  RH  021%=      5-min Rain = 0
KEN1 170013Z 05002KT 19/M04 A2993 RMK A01 T01861037  RH  022%=      5-min Rain = 0
KEN1 170014Z 05002KT 18/M04 A2993 RMK A01 T01831037  RH  022%=      5-min Rain = 0
KEN1 170015Z 05002KT 18/M04 A2993 RMK A01 T01791036  RH  023%=      5-min Rain = 0
KEN1 170016Z 05002KT 18/M04 A2993 RMK A01 T01751036  RH  024%=      5-min Rain = 0
KEN1 170017Z 05002KT 17/M04 A2993 RMK A01 T01711035  RH  024%=      5-min Rain = 0
KEN1 170018Z 05002KT 17/M04 A2993 RMK A01 T01671035  RH  025%=      5-min Rain = 0
KEN1 170019Z 04002KT 17/M04 A2993 RMK A01 T01671035  RH  025%=      5-min Rain = 0
KEN1 170020Z 04002KT 17/M04 A2993 RMK A01 T01701036  RH  024%=      5-min Rain = 0
KEN1 170021Z 04002KT 17/M04 A2993 RMK A01 T01741036  RH  024%=      5-min Rain = 0
KEN1 170022Z 04002KT 18/M04 A2993 RMK A01 T01771036  RH  023%=      5-min Rain = 0
KEN1 170023Z 04002KT 18/M04 A2993 RMK A01 T01801036  RH  023%=      5-min Rain = 0
KEN1 170024Z 04002KT 18/M04 A2993 RMK A01 T01821036  RH  022%=      5-min Rain = 0
KEN1 170025Z 04002KT 18/M04 A2993 RMK A01 T01831036  RH  022%=      5-min Rain = 0
KEN1 170026Z 05002KT 18/M04 A2993 RMK A01 T01821037  RH  022%=      5-min Rain = 0
KEN1 170027Z 05002KT 18/M04 A2993 RMK A01 T01801036  RH  023%=      5-min Rain = 0
KEN1 170028Z 05002KT 18/M04 A2993 RMK A01 T01801036  RH  023%=      5-min Rain = 0
KEN1 170029Z 05002KT 17/M04 A2993 RMK A01 T01741036  RH  024%=      5-min Rain = 0
KEN1 170030Z 06002KT 16/M04 A2994 RMK A01 T01631037  RH  025%=      5-min Rain = 0
KEN1 170031Z 08002KT 16/M04 A2994 RMK A01 T01571036  RH  026%=      5-min Rain = 0
KEN1 170032Z 08002KT 16/M04 A2994 RMK A01 T01581035  RH  026%=      5-min Rain = 0
KEN1 170033Z 09002KT 16/M04 A2994 RMK A01 T01631036  RH  025%=      5-min Rain = 0
KEN1 170034Z 11002KT 17/M04 A2994 RMK A01 T01691035  RH  025%=      5-min Rain = 0
KEN1 170035Z 14005KT 17/M03 A2994 RMK A01 T01711034  RH  024%=      5-min Rain = 0
KEN1 170036Z 16008KT 17/M03 A2994 RMK A01 T01651026  RH  027%=      5-min Rain = 0
KEN1 170037Z 15008KT 16/M03 A2994 RMK A01 T01551025  RH  029%=      5-min Rain = 0
KEN1 170038Z 14008KT 15/M02 A2994 RMK A01 T01481023  RH  031%=      5-min Rain = 0
KEN1 170039Z 14007KT 14/M02 A2994 RMK A01 T01431023  RH  032%=      5-min Rain = 0
KEN1 170040Z 15008KT 14/M02 A2994 RMK A01 T01411023  RH  032%=      5-min Rain = 0
KEN1 170041Z 15007KT 14/M02 A2994 RMK A01 T01391022  RH  033%=      5-min Rain = 0
KEN1 170042Z 15008KT 14/M02 A2994 RMK A01 T01371022  RH  033%=      5-min Rain = 0
KEN1 170043Z 15007KT 14/M02 A2994 RMK A01 T01361022  RH  033%=      5-min Rain = 0
KEN1 170044Z 15007KT 14/M02 A2994 RMK A01 T01361022  RH  033%=      5-min Rain = 0
KEN1 170045Z 15007KT 14/M02 A2994 RMK A01 T01361022  RH  033%=      5-min Rain = 0
KEN1 170046Z 16007KT 14/M02 A2994 RMK A01 T01361022  RH  033%=      5-min Rain = 0
KEN1 170047Z 15007KT 14/M02 A2994 RMK A01 T01351022  RH  034%=      5-min Rain = 0
KEN1 170048Z 15007KT 14/M02 A2994 RMK A01 T01351021  RH  034%=      5-min Rain = 0
KEN1 170049Z 15007KT 13/M02 A2994 RMK A01 T01341020  RH  034%=      5-min Rain = 0
KEN1 170050Z 15006KT 13/M02 A2994 RMK A01 T01341019  RH  035%=      5-min Rain = 0
KEN1 170051Z 15006KT 13/M02 A2994 RMK A01 T01331019  RH  035%=      5-min Rain = 0
KEN1 170052Z 15007KT 13/M02 A2994 RMK A01 T01331018  RH  035%=      5-min Rain = 0
KEN1 170053Z 15006KT 13/M02 A2994 RMK A01 T01331017  RH  035%=      5-min Rain = 0
KEN1 170054Z 15007KT 13/M02 A2994 RMK A01 T01331017  RH  035%=      5-min Rain = 0
KEN1 170055Z 15007KT 13/M02 A2994 RMK A01 T01321017  RH  036%=      5-min Rain = 0
KEN1 170056Z 14007KT 13/M02 A2994 RMK A01 T01311016  RH  036%=      5-min Rain = 0
KEN1 170057Z 14007KT 13/M02 A2994 RMK A01 T01311015  RH  036%=      5-min Rain = 0
KEN1 170058Z 14007KT 13/M01 A2994 RMK A01 T01301014  RH  037%=      5-min Rain = 0
KEN1 170059Z 14007KT 13/M01 A2994 RMK A01 T01301014  RH  037%=      5-min Rain = 0
KEN1 170100Z 14007KT 13/M01 A2994 RMK A01 T01311013  RH  037%=      5-min Rain = 0
KEN1 170101Z 15007KT 13/M01 A2994 RMK A01 T01331013  RH  037%=      5-min Rain = 0
KEN1 170102Z 15007KT 13/M01 A2994 RMK A01 T01331013  RH  037%=      5-min Rain = 0
KEN1 170103Z 15007KT 13/M01 A2994 RMK A01 T01331012  RH  037%=      5-min Rain = 0
KEN1 170104Z 15007KT 13/M01 A2994 RMK A01 T01341011  RH  037%=      5-min Rain = 0
KEN1 170105Z 14007KT 13/M01 A2994 RMK A01 T01331011  RH  037%=      5-min Rain = 0
KEN1 170106Z 14007KT 13/M01 A2994 RMK A01 T01331011  RH  037%=      5-min Rain = 0
KEN1 170107Z 14007KT 13/M01 A2994 RMK A01 T01321011  RH  037%=      5-min Rain = 0
KEN1 170108Z 14007KT 13/M01 A2994 RMK A01 T01311011  RH  037%=      5-min Rain = 0
KEN1 170109Z 14006KT 13/M01 A2994 RMK A01 T01311012  RH  037%=      5-min Rain = 0
KEN1 170110Z 14006KT 13/M01 A2994 RMK A01 T01291012  RH  038%=      5-min Rain = 0
KEN1 170111Z 14006KT 13/M01 A2994 RMK A01 T01281012  RH  038%=      5-min Rain = 0
KEN1 170112Z 14006KT 13/M01 A2994 RMK A01 T01271012  RH  038%=      5-min Rain = 0
KEN1 170113Z 14006KT 13/M01 A2994 RMK A01 T01251013  RH  038%=      5-min Rain = 0
KEN1 170114Z 14006KT 13/M01 A2994 RMK A01 T01251012  RH  038%=      5-min Rain = 0
KEN1 170115Z 15006KT 13/M01 A2994 RMK A01 T01251013  RH  038%=      5-min Rain = 0
KEN1 170116Z 14006KT 12/M01 A2994 RMK A01 T01241013  RH  039%=      5-min Rain = 0
KEN1 170117Z 14006KT 12/M01 A2994 RMK A01 T01221013  RH  039%=      5-min Rain = 0
KEN1 170118Z 14006KT 12/M01 A2994 RMK A01 T01191014  RH  040%=      5-min Rain = 0
KEN1 170119Z 14006KT 12/M01 A2994 RMK A01 T01171014  RH  040%=      5-min Rain = 0
KEN1 170120Z 14006KT 12/M01 A2994 RMK A01 T01161013  RH  041%=      5-min Rain = 0
KEN1 170121Z 14006KT 12/M01 A2994 RMK A01 T01161013  RH  041%=      5-min Rain = 0
KEN1 170122Z 14005KT 12/M01 A2994 RMK A01 T01171013  RH  041%=      5-min Rain = 0
KEN1 170123Z 14006KT 12/M01 A2994 RMK A01 T01161013  RH  041%=      5-min Rain = 0
KEN1 170124Z 15005KT 11/M01 A2994 RMK A01 T01141013  RH  041%=      5-min Rain = 0
KEN1 170125Z 15005KT 11/M01 A2994 RMK A01 T01131013  RH  041%=      5-min Rain = 0
KEN1 170126Z 14005KT 11/M01 A2994 RMK A01 T01121013  RH  042%=      5-min Rain = 0
KEN1 170127Z 14005KT 11/M01 A2995 RMK A01 T01121013  RH  042%=      5-min Rain = 0
KEN1 170128Z 15004KT 11/M01 A2995 RMK A01 T01131013  RH  041%=      5-min Rain = 0
KEN1 170129Z 14004KT 11/M01 A2995 RMK A01 T01131013  RH  041%=      5-min Rain = 0
KEN1 170130Z 14003KT 11/M01 A2995 RMK A01 T01131013  RH  042%=      5-min Rain = 0
KEN1 170131Z 14003KT 11/M01 A2995 RMK A01 T01121013  RH  042%=      5-min Rain = 0
KEN1 170132Z 14003KT 11/M01 A2995 RMK A01 T01121013  RH  042%=      5-min Rain = 0
KEN1 170133Z 14003KT 11/M01 A2995 RMK A01 T01121014  RH  042%=      5-min Rain = 0
KEN1 170134Z 14003KT 11/M02 A2995 RMK A01 T01101015  RH  042%=      5-min Rain = 0
KEN1 170135Z 14003KT 11/M01 A2995 RMK A01 T01091014  RH  042%=      5-min Rain = 0
KEN1 170136Z 14003KT 11/M01 A2995 RMK A01 T01101014  RH  042%=      5-min Rain = 0
KEN1 170137Z 14003KT 11/M01 A2995 RMK A01 T01111014  RH  042%=      5-min Rain = 0
KEN1 170138Z 15004KT 11/M01 A2995 RMK A01 T01141014  RH  041%=      5-min Rain = 0
KEN1 170139Z 15005KT 12/M01 A2995 RMK A01 T01161014  RH  040%=      5-min Rain = 0
KEN1 170140Z 15005KT 12/M01 A2995 RMK A01 T01181014  RH  040%=      5-min Rain = 0
KEN1 170141Z 15005KT 12/M01 A2995 RMK A01 T01191014  RH  040%=      5-min Rain = 0
KEN1 170142Z 15005KT 12/M01 A2995 RMK A01 T01201014  RH  039%=      5-min Rain = 0
KEN1 170143Z 15005KT 12/M01 A2995 RMK A01 T01201014  RH  039%=      5-min Rain = 0
KEN1 170144Z 15005KT 12/M02 A2995 RMK A01 T01181015  RH  040%=      5-min Rain = 0
KEN1 170145Z 15004KT 12/M02 A2995 RMK A01 T01171015  RH  040%=      5-min Rain = 0
KEN1 170146Z 15004KT 12/M02 A2995 RMK A01 T01161015  RH  040%=      5-min Rain = 0
KEN1 170147Z 15004KT 11/M02 A2995 RMK A01 T01131015  RH  041%=      5-min Rain = 0
KEN1 170148Z 15004KT 11/M02 A2995 RMK A01 T01111015  RH  041%=      5-min Rain = 0
KEN1 170149Z 16004KT 11/M02 A2995 RMK A01 T01101015  RH  042%=      5-min Rain = 0
KEN1 170150Z 16004KT 11/M02 A2995 RMK A01 T01101015  RH  042%=      5-min Rain = 0
KEN1 170151Z 17004KT 11/M02 A2995 RMK A01 T01121015  RH  041%=      5-min Rain = 0
KEN1 170152Z 17005KT 11/M02 A2995 RMK A01 T01131015  RH  041%=      5-min Rain = 0
KEN1 170153Z 17005KT 11/M02 A2995 RMK A01 T01131015  RH  041%=      5-min Rain = 0
KEN1 170154Z 17004KT 11/M02 A2995 RMK A01 T01121015  RH  041%=      5-min Rain = 0
KEN1 170155Z 17005KT 11/M02 A2995 RMK A01 T01111015  RH  041%=      5-min Rain = 0
KEN1 170156Z 17004KT 11/M02 A2995 RMK A01 T01101015  RH  042%=      5-min Rain = 0
KEN1 170157Z 17004KT 11/M02 A2995 RMK A01 T01101015  RH  042%=      5-min Rain = 0
KEN1 170158Z 17004KT 11/M02 A2995 RMK A01 T01091015  RH  042%=      5-min Rain = 0
KEN1 170159Z 16004KT 11/M02 A2995 RMK A01 T01081015  RH  042%=      5-min Rain = 0
KEN1 170200Z 16004KT 11/M02 A2995 RMK A01 T01081015  RH  042%=      5-min Rain = 0
KEN1 170201Z 16004KT 11/M02 A2995 RMK A01 T01081015  RH  042%=      5-min Rain = 0
KEN1 170202Z 16004KT 11/M02 A2995 RMK A01 T01071015  RH  043%=      5-min Rain = 0
KEN1 170203Z 16004KT 11/M02 A2995 RMK A01 T01051016  RH  043%=      5-min Rain = 0
KEN1 170204Z 16004KT 10/M02 A2995 RMK A01 T01031016  RH  044%=      5-min Rain = 0
KEN1 170205Z 17005KT 10/M02 A2995 RMK A01 T01021015  RH  044%=      5-min Rain = 0
KEN1 170206Z 17005KT 10/M02 A2995 RMK A01 T01011015  RH  044%=      5-min Rain = 0
KEN1 170207Z 17005KT 10/M02 A2995 RMK A01 T00991015  RH  045%=      5-min Rain = 0
KEN1 170208Z 17005KT 10/M02 A2995 RMK A01 T00971015  RH  045%=      5-min Rain = 0
KEN1 170209Z 17005KT 10/M02 A2995 RMK A01 T00951015  RH  046%=      5-min Rain = 0
KEN1 170210Z 17005KT 09/M02 A2995 RMK A01 T00941016  RH  046%=      5-min Rain = 0
KEN1 170211Z 17005KT 09/M02 A2995 RMK A01 T00921016  RH  047%=      5-min Rain = 0
KEN1 170212Z 17004KT 09/M02 A2995 RMK A01 T00911016  RH  047%=      5-min Rain = 0
KEN1 170213Z 17004KT 09/M02 A2995 RMK A01 T00891016  RH  048%=      5-min Rain = 0
KEN1 170214Z 18004KT 09/M02 A2995 RMK A01 T00881016  RH  048%=      5-min Rain = 0
KEN1 170215Z 18004KT 09/M02 A2995 RMK A01 T00891016  RH  048%=      5-min Rain = 0
KEN1 170216Z 18004KT 09/M02 A2995 RMK A01 T00901015  RH  048%=      5-min Rain = 0
KEN1 170217Z 19004KT 09/M02 A2995 RMK A01 T00921015  RH  047%=      5-min Rain = 0
KEN1 170218Z 18005KT 09/M02 A2996 RMK A01 T00921015  RH  047%=      5-min Rain = 0
KEN1 170219Z 18005KT 09/M02 A2996 RMK A01 T00921015  RH  047%=      5-min Rain = 0
KEN1 170220Z 18005KT 09/M02 A2996 RMK A01 T00911016  RH  047%=      5-min Rain = 0
KEN1 170221Z 18005KT 09/M02 A2996 RMK A01 T00911015  RH  047%=      5-min Rain = 0
KEN1 170222Z 18005KT 09/M02 A2996 RMK A01 T00931015  RH  047%=      5-min Rain = 0
KEN1 170223Z 18004KT 10/M02 A2996 RMK A01 T00951015  RH  046%=      5-min Rain = 0
KEN1 170224Z 18004KT 10/M02 A2996 RMK A01 T00951015  RH  046%=      5-min Rain = 0
KEN1 170225Z 18004KT 09/M02 A2996 RMK A01 T00941015  RH  046%=      5-min Rain = 0
KEN1 170226Z 19004KT 09/M02 A2996 RMK A01 T00931016  RH  046%=      5-min Rain = 0
KEN1 170227Z 19004KT 09/M02 A2996 RMK A01 T00931015  RH  047%=      5-min Rain = 0
KEN1 170228Z 18004KT 10/M02 A2996 RMK A01 T00951015  RH  046%=      5-min Rain = 0
KEN1 170229Z 18004KT 10/M01 A2996 RMK A01 T00981014  RH  046%=      5-min Rain = 0
KEN1 170230Z 17004KT 10/M01 A2996 RMK A01 T00991014  RH  045%=      5-min Rain = 0
KEN1 170231Z 17004KT 10/M01 A2996 RMK A01 T00991014  RH  045%=      5-min Rain = 0
KEN1 170232Z 17004KT 10/M02 A2996 RMK A01 T00981015  RH  045%=      5-min Rain = 0
KEN1 170233Z 17004KT 10/M02 A2996 RMK A01 T00971015  RH  046%=      5-min Rain = 0
KEN1 170234Z 17003KT 10/M02 A2996 RMK A01 T00951015  RH  046%=      5-min Rain = 0
KEN1 170235Z 17003KT 09/M02 A2996 RMK A01 T00941015  RH  047%=      5-min Rain = 0
KEN1 170236Z 17002KT 09/M02 A2996 RMK A01 T00941015  RH  047%=      5-min Rain = 0
KEN1 170237Z 18002KT 09/M01 A2996 RMK A01 T00941014  RH  047%=      5-min Rain = 0
KEN1 170238Z 19002KT 09/M01 A2996 RMK A01 T00931014  RH  047%=      5-min Rain = 0
KEN1 170239Z 20002KT 09/M02 A2996 RMK A01 T00931015  RH  047%=      5-min Rain = 0
KEN1 170240Z 20002KT 09/M02 A2996 RMK A01 T00921015  RH  047%=      5-min Rain = 0
KEN1 170241Z 19002KT 09/M01 A2996 RMK A01 T00931014  RH  047%=      5-min Rain = 0
KEN1 170242Z 19002KT 09/M01 A2996 RMK A01 T00941014  RH  047%=      5-min Rain = 0
KEN1 170243Z 19002KT 09/M01 A2996 RMK A01 T00941014  RH  047%=      5-min Rain = 0
KEN1 170244Z 18002KT 09/M01 A2996 RMK A01 T00941014  RH  047%=      5-min Rain = 0
KEN1 170245Z 17003KT 09/M01 A2996 RMK A01 T00941014  RH  047%=      5-min Rain = 0
KEN1 170246Z 16003KT 09/M01 A2996 RMK A01 T00931014  RH  047%=      5-min Rain = 0
KEN1 170247Z 15003KT 09/M01 A2996 RMK A01 T00921014  RH  047%=      5-min Rain = 0
KEN1 170248Z 15003KT 09/M01 A2996 RMK A01 T00901013  RH  048%=      5-min Rain = 0
KEN1 170249Z 15003KT 09/M01 A2996 RMK A01 T00891013  RH  049%=      5-min Rain = 0
KEN1 170250Z 15003KT 09/M01 A2996 RMK A01 T00881013  RH  049%=      5-min Rain = 0
KEN1 170251Z 15002KT 09/M01 A2996 RMK A01 T00881012  RH  049%=      5-min Rain = 0
KEN1 170252Z 15002KT 09/M01 A2996 RMK A01 T00881012  RH  049%=      5-min Rain = 0
KEN1 170253Z 15002KT 09/M01 A2996 RMK A01 T00871012  RH  050%=      5-min Rain = 0
KEN1 170254Z 15002KT 09/M01 A2996 RMK A01 T00871012  RH  050%=      5-min Rain = 0
KEN1 170255Z 15002KT 09/M01 A2996 RMK A01 T00871013  RH  050%=      5-min Rain = 0
KEN1 170256Z 14002KT 09/M01 A2996 RMK A01 T00861013  RH  050%=      5-min Rain = 0
KEN1 170257Z 14002KT 09/M01 A2996 RMK A01 T00861013  RH  050%=      5-min Rain = 0
KEN1 170258Z 14002KT 09/M01 A2996 RMK A01 T00861013  RH  050%=      5-min Rain = 0
KEN1 170259Z 14001KT 09/M01 A2997 RMK A01 T00851013  RH  050%=      5-min Rain = 0
KEN1 170300Z 15001KT 09/M01 A2997 RMK A01 T00851013  RH  050%=      5-min Rain = 0
KEN1 170301Z 15001KT 08/M01 A2997 RMK A01 T00841013  RH  051%=      5-min Rain = 0
KEN1 170302Z 14001KT 08/M01 A2997 RMK A01 T00831013  RH  051%=      5-min Rain = 0
KEN1 170303Z 14000KT 08/M01 A2997 RMK A01 T00821013  RH  051%=      5-min Rain = 0
KEN1 170304Z 15001KT 08/M01 A2997 RMK A01 T00811013  RH  051%=      5-min Rain = 0
KEN1 170305Z 14002KT 08/M01 A2997 RMK A01 T00801013  RH  052%=      5-min Rain = 0
KEN1 170306Z 14002KT 08/M01 A2997 RMK A01 T00801013  RH  052%=      5-min Rain = 0
KEN1 170307Z 14003KT 08/M01 A2997 RMK A01 T00791012  RH  052%=      5-min Rain = 0
KEN1 170308Z 14003KT 08/M01 A2997 RMK A01 T00791012  RH  053%=      5-min Rain = 0
KEN1 170309Z 14003KT 08/M01 A2997 RMK A01 T00801011  RH  053%=      5-min Rain = 0
KEN1 170310Z 15003KT 08/M01 A2997 RMK A01 T00811011  RH  052%=      5-min Rain = 0
KEN1 170311Z 15003KT 08/M01 A2997 RMK A01 T00811011  RH  052%=      5-min Rain = 0
KEN1 170312Z 15004KT 08/M01 A2997 RMK A01 T00811011  RH  052%=      5-min Rain = 0
KEN1 170313Z 15004KT 08/M01 A2996 RMK A01 T00811010  RH  053%=      5-min Rain = 0
KEN1 170314Z 15004KT 08/M01 A2996 RMK A01 T00801010  RH  053%=      5-min Rain = 0
KEN1 170315Z 15005KT 08/M01 A2996 RMK A01 T00801010  RH  053%=      5-min Rain = 0
KEN1 170316Z 15005KT 08/M01 A2996 RMK A01 T00811010  RH  053%=      5-min Rain = 0
KEN1 170317Z 15005KT 08/M01 A2996 RMK A01 T00831009  RH  052%=      5-min Rain = 0
KEN1 170318Z 16006KT 08/M01 A2996 RMK A01 T00841009  RH  052%=      5-min Rain = 0
KEN1 170319Z 16006KT 09/M01 A2996 RMK A01 T00851009  RH  052%=      5-min Rain = 0
KEN1 170320Z 16007KT 09/M01 A2996 RMK A01 T00871009  RH  051%=      5-min Rain = 0
KEN1 170321Z 16007KT 09/M01 A2996 RMK A01 T00871009  RH  051%=      5-min Rain = 0
KEN1 170322Z 15006KT 09/M01 A2996 RMK A01 T00871008  RH  051%=      5-min Rain = 0
KEN1 170323Z 15005KT 09/M01 A2996 RMK A01 T00871009  RH  051%=      5-min Rain = 0
KEN1 170324Z 15005KT 09/M01 A2996 RMK A01 T00861009  RH  051%=      5-min Rain = 0
KEN1 170325Z 15004KT 09/M01 A2996 RMK A01 T00851009  RH  052%=      5-min Rain = 0
KEN1 170326Z 14004KT 09/M01 A2997 RMK A01 T00851009  RH  052%=      5-min Rain = 0
KEN1 170327Z 14003KT 09/M01 A2997 RMK A01 T00851009  RH  052%=      5-min Rain = 0
KEN1 170328Z 14002KT 09/M01 A2997 RMK A01 T00851009  RH  052%=      5-min Rain = 0
KEN1 170329Z 09001KT 08/M01 A2997 RMK A01 T00841009  RH  052%=      5-min Rain = 0
KEN1 170330Z 05002KT 08/M01 A2997 RMK A01 T00811011  RH  052%=      5-min Rain = 0
KEN1 170331Z 05002KT 08/M01 A2998 RMK A01 T00781011  RH  053%=      5-min Rain = 0
KEN1 170332Z 02005KT 08/M01 A2998 RMK A01 T00771010  RH  054%=      5-min Rain = 0
KEN1 170333Z 02013KT 08/M01 A2998 RMK A01 T00761010  RH  054%=      5-min Rain = 0
KEN1 170334Z 01008KT 08/M01 A2998 RMK A01 T00761012  RH  054%=      5-min Rain = 0
KEN1 170335Z 02006KT 08/M01 A2998 RMK A01 T00771013  RH  053%=      5-min Rain = 0
KEN1 170336Z 03005KT 08/M01 A2998 RMK A01 T00771014  RH  052%=      5-min Rain = 0
KEN1 170337Z 03007KT 08/M02 A2998 RMK A01 T00781015  RH  052%=      5-min Rain = 0
KEN1 170338Z 02008KT 08/M02 A2998 RMK A01 T00781015  RH  052%=      5-min Rain = 0
KEN1 170339Z 02009KT 08/M02 A2998 RMK A01 T00761016  RH  052%=      5-min Rain = 0
KEN1 170340Z 02009KT 07/M02 A2998 RMK A01 T00741016  RH  053%=      5-min Rain = 0
KEN1 170341Z 02009KT 07/M02 A2998 RMK A01 T00721016  RH  053%=      5-min Rain = 0
KEN1 170342Z 02007KT 07/M02 A2998 RMK A01 T00711016  RH  054%=      5-min Rain = 0
KEN1 170343Z 03007KT 07/M02 A2998 RMK A01 T00711017  RH  054%=      5-min Rain = 0
KEN1 170344Z 03007KT 07/M02 A2998 RMK A01 T00701017  RH  054%=      5-min Rain = 0
KEN1 170345Z 03007KT 07/M02 A2998 RMK A01 T00711017  RH  054%=      5-min Rain = 0
KEN1 170346Z 04008KT 07/M02 A2998 RMK A01 T00701018  RH  054%=      5-min Rain = 0
KEN1 170347Z 04008KT 07/M02 A2998 RMK A01 T00691017  RH  054%=      5-min Rain = 0
KEN1 170348Z 04008KT 07/M02 A2998 RMK A01 T00681018  RH  054%=      5-min Rain = 0
KEN1 170349Z 04008KT 07/M02 A2998 RMK A01 T00671017  RH  055%=      5-min Rain = 0
KEN1 170350Z 04008KT 07/M02 A2998 RMK A01 T00671017  RH  055%=      5-min Rain = 0
KEN1 170351Z 04009KT 07/M02 A2998 RMK A01 T00671017  RH  055%=      5-min Rain = 0
KEN1 170352Z 04008KT 07/M02 A2998 RMK A01 T00671017  RH  055%=      5-min Rain = 0
KEN1 170353Z 04008KT 07/M02 A2998 RMK A01 T00671017  RH  055%=      5-min Rain = 0
KEN1 170354Z 04007KT 07/M02 A2998 RMK A01 T00661017  RH  055%=      5-min Rain = 0
KEN1 170355Z 05006KT 07/M02 A2998 RMK A01 T00661017  RH  055%=      5-min Rain = 0
KEN1 170356Z 05006KT 07/M02 A2998 RMK A01 T00661017  RH  055%=      5-min Rain = 0
KEN1 170357Z 05006KT 07/M02 A2998 RMK A01 T00661017  RH  055%=      5-min Rain = 0
KEN1 170358Z 05006KT 07/M02 A2998 RMK A01 T00661017  RH  055%=      5-min Rain = 0
KEN1 170359Z 05006KT 07/M02 A2998 RMK A01 T00661017  RH  055%=      5-min Rain = 0
KEN1 170400Z 05006KT 07/M02 A2998 RMK A01 T00671017  RH  055%=      5-min Rain = 0
KEN1 170401Z 05006KT 07/M02 A2998 RMK A01 T00681017  RH  055%=      5-min Rain = 0
KEN1 170402Z 04006KT 07/M02 A2998 RMK A01 T00681017  RH  055%=      5-min Rain = 0
KEN1 170403Z 04006KT 07/M02 A2998 RMK A01 T00681017  RH  054%=      5-min Rain = 0
KEN1 170404Z 04007KT 07/M02 A2998 RMK A01 T00681017  RH  054%=      5-min Rain = 0
KEN1 170405Z 03007KT 07/M02 A2998 RMK A01 T00691017  RH  054%=      5-min Rain = 0
KEN1 170406Z 03006KT 07/M02 A2998 RMK A01 T00691017  RH  054%=      5-min Rain = 0
KEN1 170407Z 03006KT 07/M02 A2998 RMK A01 T00671018  RH  055%=      5-min Rain = 0
KEN1 170408Z 03006KT 07/M02 A2998 RMK A01 T00651018  RH  055%=      5-min Rain = 0
KEN1 170409Z 02007KT 06/M02 A2999 RMK A01 T00631019  RH  056%=      5-min Rain = 0
KEN1 170410Z 02007KT 06/M02 A2999 RMK A01 T00611019  RH  056%=      5-min Rain = 0
KEN1 170411Z 01008KT 06/M02 A2999 RMK A01 T00601019  RH  057%=      5-min Rain = 0
KEN1 170412Z 01008KT 06/M02 A2999 RMK A01 T00601018  RH  058%=      5-min Rain = 0
KEN1 170413Z 01009KT 06/M02 A2999 RMK A01 T00621016  RH  057%=      5-min Rain = 0
KEN1 170414Z 01009KT 07/M02 A2999 RMK A01 T00651015  RH  057%=      5-min Rain = 0
KEN1 170415Z 00009KT 07/M02 A2999 RMK A01 T00661015  RH  056%=      5-min Rain = 0
KEN1 170416Z 00008KT 07/M02 A2999 RMK A01 T00681015  RH  056%=      5-min Rain = 0
KEN1 170417Z 00008KT 07/M02 A2999 RMK A01 T00691015  RH  055%=      5-min Rain = 0
KEN1 170418Z 00008KT 07/M02 A2999 RMK A01 T00711015  RH  054%=      5-min Rain = 0
KEN1 170419Z 00007KT 07/M02 A2999 RMK A01 T00731015  RH  054%=      5-min Rain = 0
KEN1 170420Z 00007KT 08/M02 A30 RMK A01 T00751016  RH  053%=      5-min Rain = 0
KEN1 170421Z 00008KT 08/M02 A30 RMK A01 T00771016  RH  052%=      5-min Rain = 0
KEN1 170422Z 00008KT 08/M02 A30 RMK A01 T00781016  RH  051%=      5-min Rain = 0
KEN1 170423Z 00008KT 08/M02 A30 RMK A01 T00791016  RH  051%=      5-min Rain = 0
KEN1 170424Z 00007KT 08/M02 A30 RMK A01 T00791017  RH  051%=      5-min Rain = 0
KEN1 170425Z 00008KT 08/M02 A30 RMK A01 T00791018  RH  051%=      5-min Rain = 0
KEN1 170426Z 01009KT 08/M02 A30 RMK A01 T00791018  RH  050%=      5-min Rain = 0
KEN1 170427Z 01009KT 08/M02 A30 RMK A01 T00791018  RH  050%=      5-min Rain = 0
KEN1 170428Z 01009KT 08/M02 A30 RMK A01 T00791019  RH  050%=      5-min Rain = 0
KEN1 170429Z 01009KT 08/M02 A30 RMK A01 T00791019  RH  050%=      5-min Rain = 0
KEN1 170430Z 01008KT 08/M02 A30 RMK A01 T00791019  RH  050%=      5-min Rain = 0
KEN1 170431Z 01009KT 08/M02 A30 RMK A01 T00791020  RH  050%=      5-min Rain = 0
KEN1 170432Z 01009KT 08/M02 A30 RMK A01 T00791020  RH  050%=      5-min Rain = 0
KEN1 170433Z 01010KT 08/M02 A30 RMK A01 T00791020  RH  050%=      5-min Rain = 0
KEN1 170434Z 01010KT 08/M02 A30 RMK A01 T00791021  RH  049%=      5-min Rain = 0
KEN1 170435Z 02009KT 08/M02 A30 RMK A01 T00811021  RH  049%=      5-min Rain = 0
KEN1 170436Z 01010KT 08/M02 A30 RMK A01 T00831021  RH  048%=      5-min Rain = 0
KEN1 170437Z 02010KT 09/M02 A3001 RMK A01 T00851021  RH  047%=      5-min Rain = 0
KEN1 170438Z 02011KT 09/M02 A3001 RMK A01 T00871022  RH  046%=      5-min Rain = 0
KEN1 170439Z 02010KT 09/M02 A3001 RMK A01 T00891022  RH  046%=      5-min Rain = 0
KEN1 170440Z 02009KT 09/M02 A3001 RMK A01 T00911023  RH  045%=      5-min Rain = 0
KEN1 170441Z 02009KT 09/M02 A3001 RMK A01 T00911023  RH  045%=      5-min Rain = 0
KEN1 170442Z 02009KT 09/M02 A3001 RMK A01 T00911023  RH  045%=      5-min Rain = 0
KEN1 170443Z 02009KT 09/M02 A3001 RMK A01 T00901024  RH  045%=      5-min Rain = 0
KEN1 170444Z 02009KT 09/M02 A3001 RMK A01 T00891024  RH  045%=      5-min Rain = 0
KEN1 170445Z 02009KT 09/M02 A3001 RMK A01 T00881024  RH  045%=      5-min Rain = 0
KEN1 170446Z 02010KT 09/M03 A3001 RMK A01 T00871025  RH  045%=      5-min Rain = 0
KEN1 170447Z 02010KT 09/M03 A3001 RMK A01 T00851025  RH  046%=      5-min Rain = 0
KEN1 170448Z 02010KT 08/M03 A3001 RMK A01 T00831026  RH  046%=      5-min Rain = 0
KEN1 170449Z 02010KT 08/M03 A3001 RMK A01 T00821025  RH  047%=      5-min Rain = 0
KEN1 170450Z 01010KT 08/M03 A3001 RMK A01 T00801026  RH  047%=      5-min Rain = 0
KEN1 170451Z 02010KT 08/M03 A3001 RMK A01 T00791026  RH  047%=      5-min Rain = 0
KEN1 170452Z 02010KT 08/M03 A3001 RMK A01 T00781026  RH  048%=      5-min Rain = 0
KEN1 170453Z 02010KT 08/M03 A3001 RMK A01 T00761027  RH  048%=      5-min Rain = 0
KEN1 170454Z 03009KT 08/M03 A3001 RMK A01 T00761026  RH  048%=      5-min Rain = 0
KEN1 170455Z 03009KT 08/M03 A3001 RMK A01 T00751027  RH  049%=      5-min Rain = 0
KEN1 170456Z 03009KT 07/M03 A3001 RMK A01 T00731027  RH  049%=      5-min Rain = 0
KEN1 170457Z 03009KT 07/M03 A3001 RMK A01 T00731027  RH  049%=      5-min Rain = 0
KEN1 170458Z 03009KT 07/M03 A3001 RMK A01 T00721028  RH  049%=      5-min Rain = 0
KEN1 170459Z 03009KT 07/M03 A3001 RMK A01 T00701028  RH  049%=      5-min Rain = 0
KEN1 170500Z 03009KT 07/M03 A3001 RMK A01 T00691029  RH  050%=      5-min Rain = 0
KEN1 170501Z 03010KT 07/M03 A3001 RMK A01 T00681029  RH  050%=      5-min Rain = 0
KEN1 170502Z 03010KT 07/M03 A3001 RMK A01 T00671029  RH  051%=      5-min Rain = 0
KEN1 170503Z 03010KT 07/M03 A3001 RMK A01 T00661028  RH  051%=      5-min Rain = 0
KEN1 170504Z 03010KT 07/M03 A3001 RMK A01 T00661029  RH  051%=      5-min Rain = 0
KEN1 170505Z 03010KT 07/M03 A3001 RMK A01 T00651029  RH  051%=      5-min Rain = 0
KEN1 170506Z 03010KT 06/M03 A3001 RMK A01 T00641029  RH  051%=      5-min Rain = 0
KEN1 170507Z 02011KT 06/M03 A3001 RMK A01 T00641029  RH  051%=      5-min Rain = 0
KEN1 170508Z 02011KT 06/M03 A3001 RMK A01 T00631029  RH  052%=      5-min Rain = 0
KEN1 170509Z 02011KT 06/M03 A3001 RMK A01 T00621029  RH  052%=      5-min Rain = 0
KEN1 170510Z 02011KT 06/M03 A3001 RMK A01 T00611029  RH  053%=      5-min Rain = 0
KEN1 170511Z 02011KT 06/M03 A3001 RMK A01 T00601029  RH  053%=      5-min Rain = 0
KEN1 170512Z 02011KT 06/M03 A3001 RMK A01 T00601028  RH  053%=      5-min Rain = 0
KEN1 170513Z 02011KT 06/M03 A3001 RMK A01 T00611028  RH  053%=      5-min Rain = 0
KEN1 170514Z 02011KT 06/M03 A3001 RMK A01 T00621027  RH  053%=      5-min Rain = 0
KEN1 170515Z 02011KT 06/M03 A3001 RMK A01 T00641027  RH  052%=      5-min Rain = 0
KEN1 170516Z 03010KT 07/M03 A3001 RMK A01 T00691025  RH  051%=      5-min Rain = 0
KEN1 170517Z 03012KT 07/M02 A3001 RMK A01 T00741024  RH  050%=      5-min Rain = 0
KEN1 170518Z 03011KT 08/M02 A3001 RMK A01 T00791024  RH  048%=      5-min Rain = 0
KEN1 170519Z 02011KT 08/M03 A3002 RMK A01 T00811025  RH  047%=      5-min Rain = 0
KEN1 170520Z 02012KT 08/M03 A3002 RMK A01 T00821025  RH  047%=      5-min Rain = 0
KEN1 170521Z 02012KT 08/M03 A3002 RMK A01 T00821026  RH  047%=      5-min Rain = 0
KEN1 170522Z 03012KT 08/M03 A3002 RMK A01 T00831025  RH  046%=      5-min Rain = 0
KEN1 170523Z 02012KT 08/M03 A3002 RMK A01 T00831026  RH  046%=      5-min Rain = 0
KEN1 170524Z 02012KT 08/M03 A3002 RMK A01 T00841026  RH  046%=      5-min Rain = 0
KEN1 170525Z 02012KT 08/M03 A3002 RMK A01 T00841026  RH  046%=      5-min Rain = 0
KEN1 170526Z 02011KT 08/M03 A3002 RMK A01 T00831026  RH  046%=      5-min Rain = 0
KEN1 170527Z 02012KT 08/M03 A3002 RMK A01 T00831026  RH  046%=      5-min Rain = 0
KEN1 170528Z 02011KT 08/M03 A3002 RMK A01 T00821027  RH  046%=      5-min Rain = 0
KEN1 170529Z 02011KT 08/M03 A3002 RMK A01 T00821026  RH  046%=      5-min Rain = 0
KEN1 170530Z 02011KT 08/M03 A3002 RMK A01 T00821027  RH  046%=      5-min Rain = 0
KEN1 170531Z 02011KT 08/M03 A3002 RMK A01 T00831026  RH  046%=      5-min Rain = 0
KEN1 170532Z 02010KT 08/M03 A3002 RMK A01 T00831026  RH  046%=      5-min Rain = 0
KEN1 170533Z 02011KT 08/M03 A3002 RMK A01 T00821027  RH  046%=      5-min Rain = 0
KEN1 170534Z 02010KT 08/M03 A3003 RMK A01 T00811027  RH  046%=      5-min Rain = 0
KEN1 170535Z 02010KT 08/M03 A3003 RMK A01 T00801027  RH  047%=      5-min Rain = 0
KEN1 170536Z 02011KT 08/M03 A3003 RMK A01 T00801027  RH  047%=      5-min Rain = 0
KEN1 170537Z 02010KT 08/M03 A3003 RMK A01 T00781028  RH  047%=      5-min Rain = 0
KEN1 170538Z 02010KT 08/M03 A3003 RMK A01 T00771028  RH  048%=      5-min Rain = 0
KEN1 170539Z 02010KT 08/M03 A3003 RMK A01 T00751028  RH  048%=      5-min Rain = 0
KEN1 170540Z 02010KT 07/M03 A3003 RMK A01 T00731028  RH  048%=      5-min Rain = 0
KEN1 170541Z 02010KT 07/M03 A3003 RMK A01 T00721028  RH  049%=      5-min Rain = 0
KEN1 170542Z 02010KT 07/M03 A3003 RMK A01 T00701028  RH  049%=      5-min Rain = 0
KEN1 170543Z 02010KT 07/M03 A3003 RMK A01 T00691028  RH  050%=      5-min Rain = 0
KEN1 170544Z 02010KT 07/M03 A3003 RMK A01 T00671029  RH  050%=      5-min Rain = 0
KEN1 170545Z 02010KT 07/M03 A3003 RMK A01 T00661028  RH  051%=      5-min Rain = 0
KEN1 170546Z 02010KT 07/M03 A3003 RMK A01 T00651029  RH  051%=      5-min Rain = 0
KEN1 170547Z 02010KT 07/M03 A3004 RMK A01 T00651028  RH  051%=      5-min Rain = 0
KEN1 170548Z 02010KT 07/M03 A3004 RMK A01 T00651028  RH  051%=      5-min Rain = 0
KEN1 170549Z 02010KT 07/M03 A3004 RMK A01 T00651028  RH  051%=      5-min Rain = 0
KEN1 170550Z 03010KT 07/M03 A3004 RMK A01 T00661028  RH  051%=      5-min Rain = 0
KEN1 170551Z 03009KT 07/M03 A3004 RMK A01 T00661027  RH  051%=      5-min Rain = 0
KEN1 170552Z 03010KT 07/M03 A3004 RMK A01 T00671028  RH  051%=      5-min Rain = 0
KEN1 170553Z 03010KT 07/M03 A3004 RMK A01 T00671028  RH  051%=      5-min Rain = 0
KEN1 170554Z 03010KT 07/M03 A3004 RMK A01 T00671028  RH  051%=      5-min Rain = 0
KEN1 170555Z 03010KT 07/M03 A3004 RMK A01 T00671028  RH  051%=      5-min Rain = 0
KEN1 170556Z 03010KT 07/M03 A3004 RMK A01 T00661028  RH  051%=      5-min Rain = 0
KEN1 170557Z 03010KT 07/M03 A3004 RMK A01 T00651028  RH  051%=      5-min Rain = 0
KEN1 170558Z 03010KT 07/M03 A3004 RMK A01 T00651028  RH  052%=      5-min Rain = 0
KEN1 170559Z 03010KT 06/M03 A3004 RMK A01 T00641028  RH  052%=      5-min Rain = 0

Page generated in 0.0713 seconds.